Time,TemperatureF,DewpointF,PressureIn,WindDirection,WindDirectionDegrees,WindSpeedMPH,WindSpeedGustMPH,Humidity,HourlyPrecipIn,Conditions,Clouds,dailyrainin,SoftwareType,DateUTC
2013-04-09 00:02:00,52.7,30.8,29.58,SSW,203,13.6,30.0,43,0.00,,,0.00,WUHU216HW,2013-04-09 07:02:00,
2013-04-09 00:04:00,52.7,30.2,29.58,SSW,203,12.3,21.0,42,0.00,,,0.00,WUHU216HW,2013-04-09 07:04:00,
2013-04-09 00:05:00,52.7,30.8,29.58,SW,225,13.4,21.0,43,0.00,,,0.00,WUHU216HW,2013-04-09 07:05:00,
2013-04-09 00:07:00,52.7,30.8,29.57,SSW,203,26.2,27.1,43,0.00,,,0.00,WUHU216HW,2013-04-09 07:07:00,
2013-04-09 00:09:00,52.7,30.2,29.58,SSW,203,31.5,31.5,42,0.00,,,0.00,WUHU216HW,2013-04-09 07:09:00,
2013-04-09 00:10:00,52.7,30.2,29.56,SSE,158,47.9,51.2,42,0.00,,,0.00,WUHU216HW,2013-04-09 07:10:00,
2013-04-09 00:12:00,52.7,30.8,29.58,SSW,203,15.7,51.2,43,0.00,,,0.00,WUHU216HW,2013-04-09 07:12:00,
2013-04-09 00:14:00,52.9,30.9,29.58,SW,225,22.1,51.2,43,0.00,,,0.00,WUHU216HW,2013-04-09 07:14:00,
2013-04-09 00:15:00,52.9,31.5,29.58,South,180,16.3,51.2,44,0.00,,,0.00,WUHU216HW,2013-04-09 07:15:00,
2013-04-09 00:17:00,52.7,31.3,29.58,South,180,30.2,51.2,44,0.00,,,0.00,WUHU216HW,2013-04-09 07:17:00,
2013-04-09 00:18:00,52.7,31.3,29.58,SSE,158,15.9,51.2,44,0.00,,,0.00,WUHU216HW,2013-04-09 07:18:00,
2013-04-09 00:20:00,52.7,31.9,29.58,South,180,16.3,51.2,45,0.00,,,0.00,WUHU216HW,2013-04-09 07:20:00,
2013-04-09 00:22:00,52.6,32.2,29.58,SSW,203,28.6,43.6,46,0.00,,,0.00,WUHU216HW,2013-04-09 07:22:00,
2013-04-09 00:23:00,52.6,32.2,29.58,SSW,203,15.9,43.6,46,0.00,,,0.00,WUHU216HW,2013-04-09 07:23:00,
2013-04-09 00:25:00,52.6,32.2,29.57,South,180,15.2,43.6,46,0.00,,,0.00,WUHU216HW,2013-04-09 07:25:00,
2013-04-09 00:27:00,52.6,32.9,29.58,SW,225,24.2,43.6,47,0.00,,,0.00,WUHU216HW,2013-04-09 07:27:00,
2013-04-09 00:28:00,52.4,33.8,29.57,SW,225,31.5,43.6,49,0.00,,,0.00,WUHU216HW,2013-04-09 07:28:00,
2013-04-09 00:30:00,52.2,34.2,29.58,South,180,15.7,43.6,50,0.00,,,0.00,WUHU216HW,2013-04-09 07:30:00,
2013-04-09 00:31:00,52.2,34.2,29.57,South,180,25.5,43.6,50,0.00,,,0.00,WUHU216HW,2013-04-09 07:31:00,
2013-04-09 00:32:00,51.8,36.1,29.58,SSE,158,27.3,38.3,55,0.00,,,0.00,WUHU216HW,2013-04-09 07:32:00,
2013-04-09 00:33:00,51.7,35.9,29.59,South,180,25.1,38.3,55,0.00,,,0.00,WUHU216HW,2013-04-09 07:33:00,
2013-04-09 00:35:00,51.1,35.5,29.59,SW,225,9.2,38.3,55,0.01,,,0.01,WUHU216HW,2013-04-09 07:35:00,
2013-04-09 00:36:00,51.1,35.0,29.59,WSW,248,11.0,38.3,54,0.01,,,0.01,WUHU216HW,2013-04-09 07:36:00,
2013-04-09 00:37:00,50.8,36.0,29.60,SW,225,14.3,38.3,57,0.01,,,0.01,WUHU216HW,2013-04-09 07:37:00,
2013-04-09 00:38:00,50.8,36.5,29.60,WSW,248,13.0,38.3,58,0.01,,,0.01,WUHU216HW,2013-04-09 07:38:00,
2013-04-09 00:41:00,50.2,38.4,29.61,West,270,16.3,38.3,64,0.02,,,0.02,WUHU216HW,2013-04-09 07:41:00,
2013-04-09 00:42:00,49.9,38.2,29.61,WSW,248,17.7,31.3,64,0.03,,,0.03,WUHU216HW,2013-04-09 07:42:00,
2013-04-09 00:43:00,49.1,37.4,29.61,WSW,248,16.3,25.1,64,0.03,,,0.03,WUHU216HW,2013-04-09 07:43:00,
2013-04-09 00:46:00,48.1,37.2,29.61,West,270,10.5,24.2,66,0.03,,,0.03,WUHU216HW,2013-04-09 07:46:00,
2013-04-09 00:47:00,47.9,37.0,29.61,West,270,16.6,24.2,66,0.04,,,0.04,WUHU216HW,2013-04-09 07:47:00,
2013-04-09 00:49:00,47.3,37.3,29.61,WSW,248,12.1,24.2,68,0.04,,,0.04,WUHU216HW,2013-04-09 07:49:00,
2013-04-09 00:51:00,46.8,37.6,29.61,West,270,15.0,24.2,70,0.04,,,0.04,WUHU216HW,2013-04-09 07:51:00,
2013-04-09 00:52:00,46.8,37.6,29.61,West,270,12.1,24.2,70,0.04,,,0.04,WUHU216HW,2013-04-09 07:52:00,
2013-04-09 00:53:00,46.6,37.5,29.61,WSW,248,21.3,23.9,70,0.04,,,0.04,WUHU216HW,2013-04-09 07:53:00,
2013-04-09 00:54:00,46.4,37.3,29.61,WSW,248,23.0,23.9,70,0.04,,,0.04,WUHU216HW,2013-04-09 07:54:00,
2013-04-09 00:57:00,46.1,37.9,29.62,WSW,248,13.6,23.9,73,0.05,,,0.05,WUHU216HW,2013-04-09 07:57:00,
2013-04-09 00:58:00,46.1,37.6,29.62,SW,225,14.3,23.9,72,0.05,,,0.05,WUHU216HW,2013-04-09 07:58:00,
2013-04-09 00:59:00,45.9,37.7,29.62,SW,225,13.6,23.9,73,0.05,,,0.05,WUHU216HW,2013-04-09 07:59:00,
2013-04-09 01:02:00,45.7,37.5,29.61,SW,225,14.8,23.9,73,0.05,,,0.05,WUHU216HW,2013-04-09 08:02:00,
2013-04-09 01:03:00,45.7,37.3,29.61,WSW,248,15.7,23.0,72,0.05,,,0.05,WUHU216HW,2013-04-09 08:03:00,
2013-04-09 01:04:00,45.7,37.9,29.61,WSW,248,13.4,19.9,74,0.05,,,0.05,WUHU216HW,2013-04-09 08:04:00,
2013-04-09 01:07:00,45.5,37.4,29.61,WSW,248,20.1,20.1,73,0.05,,,0.05,WUHU216HW,2013-04-09 08:07:00,
2013-04-09 01:08:00,45.5,37.1,29.61,WSW,248,20.1,20.1,72,0.05,,,0.05,WUHU216HW,2013-04-09 08:08:00,
2013-04-09 01:09:00,45.5,37.7,29.61,SW,225,13.2,20.1,74,0.05,,,0.05,WUHU216HW,2013-04-09 08:09:00,
2013-04-09 01:12:00,45.4,37.5,29.61,SW,225,13.4,20.1,74,0.05,,,0.05,WUHU216HW,2013-04-09 08:12:00,
2013-04-09 01:13:00,45.4,37.5,29.61,SW,225,19.0,20.1,74,0.05,,,0.05,WUHU216HW,2013-04-09 08:13:00,
2013-04-09 01:15:00,45.4,37.5,29.61,SW,225,14.3,21.0,74,0.05,,,0.05,WUHU216HW,2013-04-09 08:15:00,
2013-04-09 01:17:00,45.5,37.4,29.61,WSW,248,17.2,21.5,73,0.05,,,0.05,WUHU216HW,2013-04-09 08:17:00,
2013-04-09 01:18:00,45.5,37.4,29.62,WSW,248,17.2,21.5,73,0.05,,,0.05,WUHU216HW,2013-04-09 08:18:00,
2013-04-09 01:20:00,45.7,37.5,29.61,SSW,203,18.1,21.5,73,0.05,,,0.05,WUHU216HW,2013-04-09 08:20:00,
2013-04-09 01:23:00,45.9,37.5,29.61,WSW,248,13.4,21.7,72,0.05,,,0.05,WUHU216HW,2013-04-09 08:23:00,
2013-04-09 01:25:00,46.1,37.6,29.62,SW,225,18.3,21.7,72,0.05,,,0.05,WUHU216HW,2013-04-09 08:25:00,
2013-04-09 01:28:00,46.1,36.1,29.61,WSW,248,21.0,22.4,68,0.05,,,0.05,WUHU216HW,2013-04-09 08:28:00,
2013-04-09 01:30:00,46.4,36.5,29.62,SSW,203,14.3,22.4,68,0.05,,,0.05,WUHU216HW,2013-04-09 08:30:00,
2013-04-09 01:33:00,46.4,35.3,29.61,SSW,203,14.8,22.4,65,0.04,,,0.05,WUHU216HW,2013-04-09 08:33:00,
2013-04-09 01:34:00,46.4,35.3,29.62,WSW,248,17.2,22.4,65,0.04,,,0.05,WUHU216HW,2013-04-09 08:34:00,
2013-04-09 01:35:00,46.4,34.9,29.62,SW,225,11.6,22.4,64,0.04,,,0.05,WUHU216HW,2013-04-09 08:35:00,
2013-04-09 01:38:00,46.6,33.5,29.62,SW,225,14.5,25.5,60,0.03,,,0.05,WUHU216HW,2013-04-09 08:38:00,
2013-04-09 01:40:00,46.8,34.5,29.62,WSW,248,14.3,25.5,62,0.02,,,0.05,WUHU216HW,2013-04-09 08:40:00,
2013-04-09 01:43:00,46.8,34.0,29.62,WSW,248,12.8,25.5,61,0.02,,,0.05,WUHU216HW,2013-04-09 08:43:00,
2013-04-09 01:44:00,46.8,33.7,29.62,SW,225,15.0,25.5,60,0.01,,,0.05,WUHU216HW,2013-04-09 08:44:00,
2013-04-09 01:45:00,46.8,34.0,29.63,SW,225,13.4,25.5,61,0.01,,,0.05,WUHU216HW,2013-04-09 08:45:00,
2013-04-09 01:49:00,47.0,33.8,29.62,WSW,248,15.9,17.7,60,0.01,,,0.05,WUHU216HW,2013-04-09 08:49:00,
2013-04-09 01:50:00,47.0,33.8,29.63,SW,225,16.3,17.7,60,0.01,,,0.05,WUHU216HW,2013-04-09 08:50:00,
2013-04-09 01:54:00,47.2,33.6,29.63,West,270,17.2,23.7,59,0.01,,,0.06,WUHU216HW,2013-04-09 08:54:00,
2013-04-09 01:55:00,47.2,33.6,29.63,SSW,203,15.9,23.7,59,0.01,,,0.06,WUHU216HW,2013-04-09 08:55:00,
2013-04-09 01:56:00,47.2,33.6,29.63,SSW,203,10.5,23.7,59,0.01,,,0.06,WUHU216HW,2013-04-09 08:56:00,
2013-04-09 01:59:00,47.2,33.6,29.62,SW,225,17.0,23.7,59,0.01,,,0.06,WUHU216HW,2013-04-09 08:59:00,
2013-04-09 02:00:00,47.2,32.7,29.62,SW,225,10.1,23.7,57,0.01,,,0.06,WUHU216HW,2013-04-09 09:00:00,
2013-04-09 02:01:00,47.2,33.1,29.62,SW,225,9.4,23.7,58,0.01,,,0.06,WUHU216HW,2013-04-09 09:01:00,
2013-04-09 02:04:00,47.0,33.0,29.62,South,180,25.9,25.9,58,0.01,,,0.06,WUHU216HW,2013-04-09 09:04:00,
2013-04-09 02:05:00,47.0,33.4,29.62,SSW,203,13.4,25.9,59,0.01,,,0.06,WUHU216HW,2013-04-09 09:05:00,
2013-04-09 02:06:00,46.8,32.8,29.62,SW,225,17.7,25.9,58,0.01,,,0.06,WUHU216HW,2013-04-09 09:06:00,
2013-04-09 02:09:00,46.8,32.8,29.62,SW,225,15.0,25.9,58,0.01,,,0.06,WUHU216HW,2013-04-09 09:09:00,
2013-04-09 02:10:00,46.8,32.8,29.62,SW,225,17.9,25.9,58,0.01,,,0.06,WUHU216HW,2013-04-09 09:10:00,
2013-04-09 02:11:00,46.8,33.2,29.62,SW,225,15.0,25.9,59,0.01,,,0.06,WUHU216HW,2013-04-09 09:11:00,
2013-04-09 02:12:00,46.8,33.2,29.62,SW,225,13.6,25.9,59,0.01,,,0.06,WUHU216HW,2013-04-09 09:12:00,
2013-04-09 02:15:00,46.6,32.1,29.62,SW,225,20.6,20.6,57,0.01,,,0.06,WUHU216HW,2013-04-09 09:15:00,
2013-04-09 02:16:00,46.6,32.1,29.61,WSW,248,12.1,24.2,57,0.01,,,0.06,WUHU216HW,2013-04-09 09:16:00,
2013-04-09 02:17:00,46.6,32.6,29.61,SW,225,12.5,24.2,58,0.01,,,0.06,WUHU216HW,2013-04-09 09:17:00,
2013-04-09 02:20:00,46.6,32.6,29.61,SSW,203,13.4,24.2,58,0.01,,,0.06,WUHU216HW,2013-04-09 09:20:00,
2013-04-09 02:22:00,46.6,31.7,29.61,SW,225,26.6,29.5,56,0.01,,,0.06,WUHU216HW,2013-04-09 09:22:00,
2013-04-09 02:25:00,46.8,31.9,29.61,SW,225,23.0,29.5,56,0.01,,,0.06,WUHU216HW,2013-04-09 09:25:00,
2013-04-09 02:26:00,46.8,31.4,29.61,SSW,203,19.2,29.5,55,0.01,,,0.06,WUHU216HW,2013-04-09 09:26:00,
2013-04-09 02:27:00,46.8,31.4,29.61,SW,225,19.2,29.5,55,0.01,,,0.06,WUHU216HW,2013-04-09 09:27:00,
2013-04-09 02:30:00,47.0,32.1,29.61,SSW,203,15.9,29.5,56,0.01,,,0.06,WUHU216HW,2013-04-09 09:30:00,
2013-04-09 02:32:00,47.0,32.1,29.61,South,180,18.6,26.6,56,0.01,,,0.06,WUHU216HW,2013-04-09 09:32:00,
2013-04-09 02:33:00,46.8,32.3,29.61,SSW,203,17.4,25.9,57,0.01,,,0.06,WUHU216HW,2013-04-09 09:33:00,
2013-04-09 02:35:00,46.8,32.3,29.61,SW,225,11.0,24.6,57,0.01,,,0.06,WUHU216HW,2013-04-09 09:35:00,
2013-04-09 02:37:00,46.6,31.7,29.61,SW,225,19.9,24.4,56,0.01,,,0.06,WUHU216HW,2013-04-09 09:37:00,
2013-04-09 02:38:00,46.6,32.1,29.61,SW,225,13.2,24.4,57,0.01,,,0.06,WUHU216HW,2013-04-09 09:38:00,
2013-04-09 02:40:00,46.6,32.1,29.61,SSW,203,11.2,26.8,57,0.01,,,0.06,WUHU216HW,2013-04-09 09:40:00,
2013-04-09 02:42:00,46.6,32.1,29.61,SW,225,16.6,26.8,57,0.01,,,0.06,WUHU216HW,2013-04-09 09:42:00,
2013-04-09 02:43:00,46.6,32.1,29.61,SW,225,9.2,26.8,57,0.01,,,0.06,WUHU216HW,2013-04-09 09:43:00,
2013-04-09 02:46:00,46.4,31.5,29.61,SSW,203,20.8,26.8,56,0.01,,,0.06,WUHU216HW,2013-04-09 09:46:00,
2013-04-09 02:47:00,46.4,31.5,29.61,WSW,248,12.8,26.8,56,0.01,,,0.06,WUHU216HW,2013-04-09 09:47:00,
2013-04-09 02:48:00,46.4,32.0,29.61,SSW,203,12.8,26.8,57,0.00,,,0.06,WUHU216HW,2013-04-09 09:48:00,
2013-04-09 02:51:00,46.4,32.0,29.61,SW,225,10.1,20.8,57,0.00,,,0.06,WUHU216HW,2013-04-09 09:51:00,
2013-04-09 02:52:00,46.4,32.0,29.62,WSW,248,13.0,20.8,57,0.00,,,0.06,WUHU216HW,2013-04-09 09:52:00,
2013-04-09 02:53:00,46.4,32.0,29.61,SW,225,10.5,20.8,57,0.00,,,0.06,WUHU216HW,2013-04-09 09:53:00,
2013-04-09 02:56:00,46.4,32.4,29.62,SW,225,12.8,15.2,58,0.00,,,0.06,WUHU216HW,2013-04-09 09:56:00,
2013-04-09 02:57:00,46.3,32.2,29.62,SW,225,11.4,19.7,58,0.00,,,0.06,WUHU216HW,2013-04-09 09:57:00,
2013-04-09 02:58:00,46.3,32.2,29.62,WSW,248,16.3,19.7,58,0.00,,,0.06,WUHU216HW,2013-04-09 09:58:00,
2013-04-09 03:02:00,46.4,32.0,29.62,SW,225,15.0,19.7,57,0.00,,,0.06,WUHU216HW,2013-04-09 10:02:00,
2013-04-09 03:03:00,46.3,31.8,29.62,SW,225,16.3,19.7,57,0.00,,,0.06,WUHU216HW,2013-04-09 10:03:00,
2013-04-09 03:07:00,46.4,32.0,29.62,WSW,248,19.2,20.1,57,0.00,,,0.06,WUHU216HW,2013-04-09 10:07:00,
2013-04-09 03:08:00,46.4,32.0,29.62,SSW,203,17.9,20.1,57,0.00,,,0.06,WUHU216HW,2013-04-09 10:08:00,
2013-04-09 03:12:00,46.4,32.9,29.62,SW,225,16.8,23.7,59,0.00,,,0.06,WUHU216HW,2013-04-09 10:12:00,
2013-04-09 03:13:00,46.4,32.4,29.62,SW,225,17.2,23.7,58,0.00,,,0.06,WUHU216HW,2013-04-09 10:13:00,
2013-04-09 03:18:00,46.3,32.7,29.62,SW,225,15.2,23.7,59,0.00,,,0.06,WUHU216HW,2013-04-09 10:18:00,
2013-04-09 03:19:00,46.3,32.7,29.62,SW,225,13.4,20.8,59,0.00,,,0.06,WUHU216HW,2013-04-09 10:19:00,
2013-04-09 03:23:00,46.1,32.5,29.61,SW,225,10.1,18.1,59,0.00,,,0.06,WUHU216HW,2013-04-09 10:23:00,
2013-04-09 03:24:00,46.1,32.9,29.61,SW,225,14.3,17.2,60,0.00,,,0.06,WUHU216HW,2013-04-09 10:24:00,
2013-04-09 03:28:00,45.9,32.9,29.61,SW,225,13.0,18.3,60,0.00,,,0.06,WUHU216HW,2013-04-09 10:28:00,
2013-04-09 03:30:00,45.7,32.2,29.61,SW,225,12.1,18.3,59,0.00,,,0.06,WUHU216HW,2013-04-09 10:30:00,
2013-04-09 03:33:00,45.7,32.7,29.61,WSW,248,8.9,18.3,60,0.00,,,0.06,WUHU216HW,2013-04-09 10:33:00,
2013-04-09 03:35:00,45.7,33.0,29.62,SW,225,12.1,18.3,61,0.00,,,0.06,WUHU216HW,2013-04-09 10:35:00,
2013-04-09 03:38:00,45.7,32.2,29.62,SW,225,12.5,18.8,59,0.00,,,0.06,WUHU216HW,2013-04-09 10:38:00,
2013-04-09 03:39:00,45.7,32.2,29.62,SW,225,12.5,18.8,59,0.00,,,0.06,WUHU216HW,2013-04-09 10:39:00,
2013-04-09 03:40:00,45.7,32.2,29.62,WSW,248,15.0,18.8,59,0.00,,,0.06,WUHU216HW,2013-04-09 10:40:00,
2013-04-09 03:43:00,45.7,32.2,29.62,SW,225,9.8,18.8,59,0.00,,,0.06,WUHU216HW,2013-04-09 10:43:00,
2013-04-09 03:44:00,45.7,32.2,29.62,SW,225,12.5,18.8,59,0.00,,,0.06,WUHU216HW,2013-04-09 10:44:00,
2013-04-09 03:46:00,45.7,31.8,29.62,WSW,248,11.0,18.8,58,0.00,,,0.06,WUHU216HW,2013-04-09 10:46:00,
2013-04-09 03:47:00,45.7,31.8,29.62,WSW,248,11.4,17.2,58,0.00,,,0.06,WUHU216HW,2013-04-09 10:47:00,
2013-04-09 03:48:00,45.7,31.3,29.62,WSW,248,20.1,20.1,57,0.00,,,0.06,WUHU216HW,2013-04-09 10:48:00,
2013-04-09 03:50:00,45.7,31.3,29.62,WSW,248,18.3,20.1,57,0.00,,,0.06,WUHU216HW,2013-04-09 10:50:00,
2013-04-09 03:51:00,45.7,31.3,29.62,WSW,248,19.7,20.1,57,0.00,,,0.06,WUHU216HW,2013-04-09 10:51:00,
2013-04-09 03:52:00,45.7,31.3,29.62,WSW,248,18.8,20.1,57,0.00,,,0.06,WUHU216HW,2013-04-09 10:52:00,
2013-04-09 03:53:00,45.7,31.3,29.62,WSW,248,17.7,20.1,57,0.00,,,0.06,WUHU216HW,2013-04-09 10:53:00,
2013-04-09 03:55:00,45.7,31.3,29.62,SW,225,19.0,21.5,57,0.00,,,0.06,WUHU216HW,2013-04-09 10:55:00,
2013-04-09 03:57:00,45.7,31.3,29.62,SSW,203,11.0,21.5,57,0.00,,,0.06,WUHU216HW,2013-04-09 10:57:00,
2013-04-09 03:58:00,45.7,31.3,29.62,SW,225,17.2,21.5,57,0.00,,,0.06,WUHU216HW,2013-04-09 10:58:00,
2013-04-09 04:01:00,45.7,30.9,29.62,SW,225,18.6,21.5,56,0.00,,,0.06,WUHU216HW,2013-04-09 11:01:00,
2013-04-09 04:02:00,45.7,30.9,29.62,WSW,248,16.6,21.5,56,0.00,,,0.06,WUHU216HW,2013-04-09 11:02:00,
2013-04-09 04:03:00,45.7,30.9,29.62,WSW,248,15.7,21.5,56,0.00,,,0.06,WUHU216HW,2013-04-09 11:03:00,
2013-04-09 04:07:00,45.7,30.4,29.62,SW,225,17.9,18.6,55,0.00,,,0.06,WUHU216HW,2013-04-09 11:07:00,
2013-04-09 04:08:00,45.7,30.9,29.62,WSW,248,16.6,19.7,56,0.00,,,0.06,WUHU216HW,2013-04-09 11:08:00,
2013-04-09 04:09:00,45.7,30.9,29.62,WSW,248,11.2,19.7,56,0.00,,,0.06,WUHU216HW,2013-04-09 11:09:00,
2013-04-09 04:12:00,45.7,31.3,29.62,SSW,203,15.2,19.7,57,0.00,,,0.06,WUHU216HW,2013-04-09 11:12:00,
2013-04-09 04:13:00,45.5,31.1,29.62,WSW,248,12.1,19.7,57,0.00,,,0.06,WUHU216HW,2013-04-09 11:13:00,
2013-04-09 04:14:00,45.5,31.1,29.62,SW,225,9.2,19.7,57,0.00,,,0.06,WUHU216HW,2013-04-09 11:14:00,
2013-04-09 04:17:00,45.4,31.0,29.62,SW,225,19.0,19.7,57,0.00,,,0.06,WUHU216HW,2013-04-09 11:17:00,
2013-04-09 04:18:00,45.4,31.0,29.62,West,270,12.1,19.2,57,0.00,,,0.06,WUHU216HW,2013-04-09 11:18:00,
2013-04-09 04:19:00,45.4,31.0,29.62,SSW,203,9.2,19.2,57,0.00,,,0.06,WUHU216HW,2013-04-09 11:19:00,
2013-04-09 04:22:00,45.2,30.8,29.62,SW,225,12.8,19.2,57,0.00,,,0.06,WUHU216HW,2013-04-09 11:22:00,
2013-04-09 04:23:00,45.2,30.8,29.63,SSW,203,11.6,19.2,57,0.00,,,0.06,WUHU216HW,2013-04-09 11:23:00,
2013-04-09 04:25:00,45.0,30.7,29.63,SW,225,16.1,19.2,57,0.00,,,0.06,WUHU216HW,2013-04-09 11:25:00,
2013-04-09 04:27:00,45.0,30.7,29.62,SW,225,17.9,20.4,57,0.00,,,0.06,WUHU216HW,2013-04-09 11:27:00,
2013-04-09 04:28:00,45.0,30.7,29.63,SW,225,13.4,20.4,57,0.00,,,0.06,WUHU216HW,2013-04-09 11:28:00,
2013-04-09 04:29:00,45.0,30.7,29.62,SW,225,12.1,20.4,57,0.00,,,0.06,WUHU216HW,2013-04-09 11:29:00,
2013-04-09 04:30:00,45.0,30.7,29.62,SW,225,11.4,20.4,57,0.00,,,0.06,WUHU216HW,2013-04-09 11:30:00,
2013-04-09 04:32:00,45.0,30.7,29.63,SW,225,9.4,20.4,57,0.00,,,0.06,WUHU216HW,2013-04-09 11:32:00,
2013-04-09 04:33:00,45.0,30.7,29.63,SSW,203,10.5,20.4,57,0.00,,,0.06,WUHU216HW,2013-04-09 11:33:00,
2013-04-09 04:34:00,45.0,30.7,29.63,WSW,248,12.8,20.4,57,0.00,,,0.06,WUHU216HW,2013-04-09 11:34:00,
2013-04-09 04:36:00,45.0,31.2,29.63,SW,225,9.2,19.5,58,0.00,,,0.06,WUHU216HW,2013-04-09 11:36:00,
2013-04-09 04:37:00,45.0,30.7,29.63,SW,225,12.5,15.2,57,0.00,,,0.06,WUHU216HW,2013-04-09 11:37:00,
2013-04-09 04:39:00,44.8,31.0,29.63,SW,225,6.9,15.2,58,0.00,,,0.06,WUHU216HW,2013-04-09 11:39:00,
2013-04-09 04:42:00,44.8,31.0,29.63,WSW,248,10.7,15.0,58,0.00,,,0.06,WUHU216HW,2013-04-09 11:42:00,
2013-04-09 04:43:00,44.8,30.5,29.63,WSW,248,8.7,15.0,57,0.00,,,0.06,WUHU216HW,2013-04-09 11:43:00,
2013-04-09 04:44:00,44.8,31.0,29.63,WSW,248,12.8,15.0,58,0.00,,,0.06,WUHU216HW,2013-04-09 11:44:00,
2013-04-09 04:45:00,44.8,31.0,29.63,WSW,248,12.8,15.0,58,0.00,,,0.06,WUHU216HW,2013-04-09 11:45:00,
2013-04-09 04:47:00,44.8,30.5,29.63,WSW,248,15.2,19.2,57,0.00,,,0.06,WUHU216HW,2013-04-09 11:47:00,
2013-04-09 04:48:00,44.8,30.5,29.63,South,180,10.7,19.2,57,0.00,,,0.06,WUHU216HW,2013-04-09 11:48:00,
2013-04-09 04:49:00,44.8,30.5,29.63,SSW,203,19.5,19.5,57,0.00,,,0.06,WUHU216HW,2013-04-09 11:49:00,
2013-04-09 04:50:00,44.8,30.5,29.63,SW,225,11.2,19.5,57,0.00,,,0.06,WUHU216HW,2013-04-09 11:50:00,
2013-04-09 04:52:00,44.8,30.5,29.63,SW,225,15.7,19.5,57,0.00,,,0.06,WUHU216HW,2013-04-09 11:52:00,
2013-04-09 04:53:00,44.8,30.1,29.63,WSW,248,13.4,19.5,56,0.00,,,0.06,WUHU216HW,2013-04-09 11:53:00,
2013-04-09 04:54:00,44.8,29.6,29.63,SW,225,8.7,19.5,55,0.00,,,0.06,WUHU216HW,2013-04-09 11:54:00,
2013-04-09 04:55:00,44.8,30.1,29.63,WSW,248,10.5,19.5,56,0.00,,,0.06,WUHU216HW,2013-04-09 11:55:00,
2013-04-09 04:57:00,44.8,30.1,29.63,SSW,203,16.3,19.5,56,0.00,,,0.06,WUHU216HW,2013-04-09 11:57:00,
2013-04-09 04:58:00,44.8,29.6,29.63,SW,225,15.4,19.5,55,0.00,,,0.06,WUHU216HW,2013-04-09 11:58:00,
2013-04-09 05:00:00,44.8,30.1,29.63,WSW,248,15.7,17.9,56,0.00,,,0.06,WUHU216HW,2013-04-09 12:00:00,
2013-04-09 05:02:00,44.8,30.1,29.63,SSW,203,13.9,17.9,56,0.00,,,0.06,WUHU216HW,2013-04-09 12:02:00,
2013-04-09 05:03:00,44.8,29.2,29.63,SW,225,15.7,17.9,54,0.00,,,0.06,WUHU216HW,2013-04-09 12:03:00,
2013-04-09 05:05:00,45.0,29.8,29.63,SW,225,12.1,17.9,55,0.00,,,0.06,WUHU216HW,2013-04-09 12:05:00,
2013-04-09 05:06:00,44.8,30.1,29.63,SW,225,10.5,17.9,56,0.00,,,0.06,WUHU216HW,2013-04-09 12:06:00,
2013-04-09 05:07:00,44.8,30.1,29.63,WSW,248,16.3,20.8,56,0.00,,,0.06,WUHU216HW,2013-04-09 12:07:00,
2013-04-09 05:09:00,45.0,30.3,29.63,SW,225,8.5,20.8,56,0.00,,,0.06,WUHU216HW,2013-04-09 12:09:00,
2013-04-09 05:10:00,45.0,30.3,29.63,SW,225,15.7,20.8,56,0.00,,,0.06,WUHU216HW,2013-04-09 12:10:00,
2013-04-09 05:11:00,45.0,30.3,29.63,SW,225,14.3,20.8,56,0.00,,,0.06,WUHU216HW,2013-04-09 12:11:00,
2013-04-09 05:13:00,45.0,30.3,29.63,WSW,248,20.6,20.8,56,0.00,,,0.06,WUHU216HW,2013-04-09 12:13:00,
2013-04-09 05:14:00,45.0,30.3,29.63,WSW,248,11.4,20.8,56,0.00,,,0.06,WUHU216HW,2013-04-09 12:14:00,
2013-04-09 05:15:00,45.0,30.3,29.64,SW,225,11.0,20.8,56,0.00,,,0.06,WUHU216HW,2013-04-09 12:15:00,
2013-04-09 05:16:00,44.8,30.1,29.64,SW,225,10.5,20.8,56,0.00,,,0.06,WUHU216HW,2013-04-09 12:16:00,
2013-04-09 05:18:00,44.8,29.6,29.63,WSW,248,10.7,20.6,55,0.00,,,0.06,WUHU216HW,2013-04-09 12:18:00,
2013-04-09 05:20:00,44.8,30.1,29.64,SW,225,12.5,20.6,56,0.00,,,0.06,WUHU216HW,2013-04-09 12:20:00,
2013-04-09 05:21:00,44.8,30.1,29.64,WSW,248,10.5,20.6,56,0.00,,,0.06,WUHU216HW,2013-04-09 12:21:00,
2013-04-09 05:22:00,44.8,30.1,29.64,WSW,248,12.3,20.6,56,0.00,,,0.06,WUHU216HW,2013-04-09 12:22:00,
2013-04-09 05:23:00,44.8,30.1,29.64,WSW,248,9.8,19.2,56,0.00,,,0.06,WUHU216HW,2013-04-09 12:23:00,
2013-04-09 05:25:00,44.8,30.1,29.64,SW,225,10.5,19.2,56,0.00,,,0.06,WUHU216HW,2013-04-09 12:25:00,
2013-04-09 05:26:00,44.8,30.1,29.64,WSW,248,13.0,19.2,56,0.00,,,0.06,WUHU216HW,2013-04-09 12:26:00,
2013-04-09 05:27:00,44.8,30.1,29.64,West,270,10.7,19.2,56,0.00,,,0.06,WUHU216HW,2013-04-09 12:27:00,
2013-04-09 05:29:00,44.6,29.9,29.65,WSW,248,6.5,19.2,56,0.00,,,0.06,WUHU216HW,2013-04-09 12:29:00,
2013-04-09 05:30:00,44.8,30.1,29.65,West,270,9.2,19.2,56,0.00,,,0.06,WUHU216HW,2013-04-09 12:30:00,
2013-04-09 05:32:00,44.8,29.2,29.65,WSW,248,12.8,18.1,54,0.00,,,0.06,WUHU216HW,2013-04-09 12:32:00,
2013-04-09 05:35:00,44.8,29.6,29.65,WSW,248,7.4,18.1,55,0.00,,,0.06,WUHU216HW,2013-04-09 12:35:00,
2013-04-09 05:38:00,44.8,29.6,29.66,SW,225,8.1,18.1,55,0.00,,,0.06,WUHU216HW,2013-04-09 12:38:00,
2013-04-09 05:40:00,44.8,29.6,29.66,WNW,293,3.8,18.1,55,0.00,,,0.06,WUHU216HW,2013-04-09 12:40:00,
2013-04-09 05:43:00,44.8,29.6,29.66,West,270,2.5,11.0,55,0.00,,,0.06,WUHU216HW,2013-04-09 12:43:00,
2013-04-09 05:45:00,44.6,29.4,29.66,WSW,248,1.6,9.6,55,0.00,,,0.06,WUHU216HW,2013-04-09 12:45:00,
2013-04-09 05:46:00,44.6,29.4,29.66,SSW,203,1.8,9.6,55,0.00,,,0.06,WUHU216HW,2013-04-09 12:46:00,
2013-04-09 05:48:00,44.6,29.4,29.66,WSW,248,5.4,8.1,55,0.00,,,0.06,WUHU216HW,2013-04-09 12:48:00,
2013-04-09 05:51:00,44.5,29.7,29.66,WSW,248,7.2,10.3,56,0.00,,,0.06,WUHU216HW,2013-04-09 12:51:00,
2013-04-09 05:53:00,44.5,29.3,29.66,SW,225,4.0,10.3,55,0.00,,,0.06,WUHU216HW,2013-04-09 12:53:00,
2013-04-09 05:57:00,44.3,29.5,29.66,SSW,203,4.7,10.3,56,0.00,,,0.06,WUHU216HW,2013-04-09 12:57:00,
2013-04-09 05:58:00,44.3,29.5,29.66,WSW,248,8.3,10.3,56,0.00,,,0.06,WUHU216HW,2013-04-09 12:58:00,
2013-04-09 06:02:00,44.3,30.0,29.66,WSW,248,5.1,10.1,57,0.00,,,0.06,WUHU216HW,2013-04-09 13:02:00,
2013-04-09 06:03:00,44.3,30.0,29.66,WSW,248,8.5,10.1,57,0.00,,,0.06,WUHU216HW,2013-04-09 13:03:00,
2013-04-09 06:07:00,44.1,30.2,29.66,SW,225,9.2,10.1,58,0.00,,,0.06,WUHU216HW,2013-04-09 13:07:00,
2013-04-09 06:08:00,44.3,30.4,29.66,WSW,248,7.6,9.8,58,0.00,,,0.06,WUHU216HW,2013-04-09 13:08:00,
2013-04-09 06:12:00,44.1,30.2,29.67,WSW,248,8.1,9.6,58,0.00,,,0.06,WUHU216HW,2013-04-09 13:12:00,
2013-04-09 06:13:00,44.1,30.2,29.67,WSW,248,6.9,9.6,58,0.00,,,0.06,WUHU216HW,2013-04-09 13:13:00,
2013-04-09 06:17:00,44.1,29.8,29.67,NW,315,3.8,9.4,57,0.00,,,0.06,WUHU216HW,2013-04-09 13:17:00,
2013-04-09 06:18:00,44.1,29.8,29.67,West,270,4.5,8.9,57,0.00,,,0.06,WUHU216HW,2013-04-09 13:18:00,
2013-04-09 06:19:00,44.1,29.8,29.67,West,270,7.2,8.9,57,0.00,,,0.06,WUHU216HW,2013-04-09 13:19:00,
2013-04-09 06:20:00,44.1,29.8,29.67,WSW,248,4.7,10.5,57,0.00,,,0.06,WUHU216HW,2013-04-09 13:20:00,
2013-04-09 06:22:00,44.1,29.8,29.67,West,270,2.7,10.5,57,0.00,,,0.06,WUHU216HW,2013-04-09 13:22:00,
2013-04-09 06:23:00,44.1,29.8,29.67,NW,315,0.7,10.5,57,0.00,,,0.06,WUHU216HW,2013-04-09 13:23:00,
2013-04-09 06:24:00,44.3,30.0,29.67,NW,315,3.4,10.5,57,0.00,,,0.06,WUHU216HW,2013-04-09 13:24:00,
2013-04-09 06:25:00,44.3,30.0,29.67,West,270,5.6,10.5,57,0.00,,,0.06,WUHU216HW,2013-04-09 13:25:00,
2013-04-09 06:28:00,44.3,30.0,29.67,SSW,203,5.1,10.5,57,0.00,,,0.06,WUHU216HW,2013-04-09 13:28:00,
2013-04-09 06:29:00,44.3,29.5,29.67,NW,315,1.1,10.5,56,0.00,,,0.06,WUHU216HW,2013-04-09 13:29:00,
2013-04-09 06:30:00,44.3,29.5,29.67,NNW,338,3.6,9.2,56,0.00,,,0.06,WUHU216HW,2013-04-09 13:30:00,
2013-04-09 06:33:00,44.3,29.5,29.67,WSW,248,3.6,8.3,56,0.00,,,0.06,WUHU216HW,2013-04-09 13:33:00,
2013-04-09 06:34:00,44.3,29.5,29.68,WSW,248,1.8,8.3,56,0.00,,,0.06,WUHU216HW,2013-04-09 13:34:00,
2013-04-09 06:35:00,44.3,29.5,29.68,WSW,248,4.0,8.3,56,0.00,,,0.06,WUHU216HW,2013-04-09 13:35:00,
2013-04-09 06:39:00,44.3,29.5,29.68,WSW,248,9.2,10.3,56,0.00,,,0.06,WUHU216HW,2013-04-09 13:39:00,
2013-04-09 06:40:00,44.5,29.7,29.67,SW,225,6.0,10.3,56,0.00,,,0.06,WUHU216HW,2013-04-09 13:40:00,
2013-04-09 06:41:00,44.5,29.7,29.68,SE,135,4.3,12.1,56,0.00,,,0.06,WUHU216HW,2013-04-09 13:41:00,
2013-04-09 06:44:00,44.5,30.2,29.67,WSW,248,10.3,12.1,57,0.00,,,0.06,WUHU216HW,2013-04-09 13:44:00,
2013-04-09 06:46:00,44.6,29.9,29.67,SW,225,7.4,15.0,56,0.00,,,0.06,WUHU216HW,2013-04-09 13:46:00,
2013-04-09 06:49:00,44.8,30.5,29.67,SW,225,11.4,15.0,57,0.00,,,0.06,WUHU216HW,2013-04-09 13:49:00,
2013-04-09 06:50:00,44.8,30.5,29.67,WSW,248,10.7,15.0,57,0.00,,,0.06,WUHU216HW,2013-04-09 13:50:00,
2013-04-09 06:51:00,44.8,30.5,29.67,WSW,248,4.7,15.0,57,0.00,,,0.06,WUHU216HW,2013-04-09 13:51:00,
2013-04-09 06:52:00,45.0,30.7,29.67,SSW,203,10.5,15.0,57,0.00,,,0.06,WUHU216HW,2013-04-09 13:52:00,
2013-04-09 06:54:00,45.0,30.3,29.67,SW,225,11.4,15.0,56,0.00,,,0.06,WUHU216HW,2013-04-09 13:54:00,
2013-04-09 06:55:00,45.2,30.3,29.67,WSW,248,9.2,15.0,56,0.00,,,0.06,WUHU216HW,2013-04-09 13:55:00,
2013-04-09 06:56:00,45.2,30.3,29.67,WSW,248,11.6,13.2,56,0.00,,,0.06,WUHU216HW,2013-04-09 13:56:00,
2013-04-09 06:57:00,45.4,30.1,29.67,WSW,248,9.8,13.2,55,0.00,,,0.06,WUHU216HW,2013-04-09 13:57:00,
2013-04-09 06:59:00,45.4,30.1,29.67,SW,225,6.3,12.5,55,0.00,,,0.06,WUHU216HW,2013-04-09 13:59:00,
2013-04-09 07:00:00,45.4,30.5,29.67,SW,225,7.8,12.5,56,0.00,,,0.06,WUHU216HW,2013-04-09 14:00:00,
2013-04-09 07:02:00,45.5,30.2,29.68,WSW,248,7.6,12.5,55,0.00,,,0.06,WUHU216HW,2013-04-09 14:02:00,
2013-04-09 07:04:00,45.7,30.0,29.67,SSW,203,4.0,11.9,54,0.00,,,0.06,WUHU216HW,2013-04-09 14:04:00,
2013-04-09 07:05:00,45.7,30.0,29.67,WSW,248,3.1,11.9,54,0.00,,,0.06,WUHU216HW,2013-04-09 14:05:00,
2013-04-09 07:07:00,45.7,30.0,29.68,SW,225,5.8,11.9,54,0.00,,,0.06,WUHU216HW,2013-04-09 14:07:00,
2013-04-09 07:08:00,45.7,30.0,29.68,SW,225,5.6,11.9,54,0.00,,,0.06,WUHU216HW,2013-04-09 14:08:00,
2013-04-09 07:09:00,45.9,30.2,29.68,SSW,203,7.6,11.9,54,0.00,,,0.06,WUHU216HW,2013-04-09 14:09:00,
2013-04-09 07:10:00,45.9,30.2,29.68,SSW,203,7.6,11.9,54,0.00,,,0.06,WUHU216HW,2013-04-09 14:10:00,
2013-04-09 07:12:00,46.1,29.8,29.68,SSW,203,8.5,12.5,53,0.00,,,0.06,WUHU216HW,2013-04-09 14:12:00,
2013-04-09 07:13:00,46.1,29.8,29.68,SSW,203,5.1,12.5,53,0.00,,,0.06,WUHU216HW,2013-04-09 14:13:00,
2013-04-09 07:14:00,46.1,29.8,29.68,SW,225,3.8,12.5,53,0.00,,,0.06,WUHU216HW,2013-04-09 14:14:00,
2013-04-09 07:15:00,46.1,29.8,29.68,WSW,248,2.9,12.5,53,0.00,,,0.06,WUHU216HW,2013-04-09 14:15:00,
2013-04-09 07:19:00,46.1,29.8,29.68,SW,225,5.8,12.5,53,0.00,,,0.06,WUHU216HW,2013-04-09 14:19:00,
2013-04-09 07:20:00,46.1,29.8,29.68,SW,225,2.9,12.5,53,0.00,,,0.06,WUHU216HW,2013-04-09 14:20:00,
2013-04-09 07:24:00,45.9,29.7,29.68,ENE,68,6.3,8.9,53,0.00,,,0.06,WUHU216HW,2013-04-09 14:24:00,
2013-04-09 07:25:00,45.9,30.2,29.69,ENE,68,6.7,8.9,54,0.00,,,0.06,WUHU216HW,2013-04-09 14:25:00,
2013-04-09 07:26:00,45.9,31.1,29.69,ENE,68,4.7,8.9,56,0.00,,,0.06,WUHU216HW,2013-04-09 14:26:00,
2013-04-09 07:29:00,45.7,31.8,29.69,ENE,68,6.5,8.9,58,0.00,,,0.06,WUHU216HW,2013-04-09 14:29:00,
2013-04-09 07:30:00,45.7,31.8,29.69,ENE,68,6.5,8.9,58,0.00,,,0.06,WUHU216HW,2013-04-09 14:30:00,
2013-04-09 07:31:00,45.5,32.5,29.69,East,90,6.5,8.7,60,0.00,,,0.06,WUHU216HW,2013-04-09 14:31:00,
2013-04-09 07:34:00,45.4,32.3,29.69,ESE,113,4.0,8.7,60,0.00,,,0.06,WUHU216HW,2013-04-09 14:34:00,
2013-04-09 07:35:00,45.4,32.3,29.69,ESE,113,4.7,8.7,60,0.00,,,0.06,WUHU216HW,2013-04-09 14:35:00,
2013-04-09 07:37:00,45.4,31.9,29.69,SE,135,4.5,8.7,59,0.00,,,0.06,WUHU216HW,2013-04-09 14:37:00,
2013-04-09 07:40:00,45.4,32.3,29.70,ENE,68,5.1,7.4,60,0.00,,,0.06,WUHU216HW,2013-04-09 14:40:00,
2013-04-09 07:42:00,45.4,32.3,29.69,ENE,68,6.0,7.4,60,0.00,,,0.06,WUHU216HW,2013-04-09 14:42:00,
2013-04-09 07:45:00,45.4,32.3,29.69,NE,45,12.1,12.1,60,0.00,,,0.06,WUHU216HW,2013-04-09 14:45:00,
2013-04-09 07:48:00,45.4,32.7,29.69,ENE,68,11.9,15.9,61,0.00,,,0.06,WUHU216HW,2013-04-09 14:48:00,
2013-04-09 07:50:00,45.5,32.9,29.70,East,90,12.8,15.9,61,0.00,,,0.06,WUHU216HW,2013-04-09 14:50:00,
2013-04-09 07:51:00,45.4,32.7,29.70,East,90,10.5,15.9,61,0.00,,,0.06,WUHU216HW,2013-04-09 14:51:00,
2013-04-09 07:53:00,45.5,32.5,29.70,ENE,68,4.7,15.9,60,0.00,,,0.06,WUHU216HW,2013-04-09 14:53:00,
2013-04-09 07:55:00,45.7,32.7,29.70,East,90,5.4,15.9,60,0.00,,,0.06,WUHU216HW,2013-04-09 14:55:00,
2013-04-09 07:56:00,45.7,32.7,29.70,East,90,5.4,15.9,60,0.00,,,0.06,WUHU216HW,2013-04-09 14:56:00,
2013-04-09 07:59:00,45.9,32.0,29.70,NE,45,6.0,13.2,58,0.00,,,0.06,WUHU216HW,2013-04-09 14:59:00,
2013-04-09 08:00:00,46.1,32.0,29.70,North,0,7.4,10.5,58,0.00,,,0.06,WUHU216HW,2013-04-09 15:00:00,
2013-04-09 08:01:00,46.1,31.6,29.70,North,0,8.5,8.7,57,0.00,,,0.06,WUHU216HW,2013-04-09 15:01:00,
2013-04-09 08:04:00,46.4,32.0,29.70,NE,45,6.9,11.0,57,0.00,,,0.06,WUHU216HW,2013-04-09 15:04:00,
2013-04-09 08:06:00,46.4,32.0,29.70,NE,45,5.6,11.0,57,0.00,,,0.06,WUHU216HW,2013-04-09 15:06:00,
2013-04-09 08:09:00,46.6,32.1,29.70,North,0,0.2,11.0,57,0.00,,,0.06,WUHU216HW,2013-04-09 15:09:00,
2013-04-09 08:12:00,46.8,32.3,29.70,WNW,293,3.4,9.6,57,0.00,,,0.06,WUHU216HW,2013-04-09 15:12:00,
2013-04-09 08:14:00,46.8,31.4,29.71,NNW,338,4.0,8.7,55,0.00,,,0.06,WUHU216HW,2013-04-09 15:14:00,
2013-04-09 08:17:00,47.0,31.2,29.71,NNW,338,5.4,8.3,54,0.00,,,0.06,WUHU216HW,2013-04-09 15:17:00,
2013-04-09 08:18:00,47.0,31.2,29.71,NNW,338,4.0,8.3,54,0.00,,,0.06,WUHU216HW,2013-04-09 15:18:00,
2013-04-09 08:19:00,47.0,31.2,29.71,NW,315,4.0,8.3,54,0.00,,,0.06,WUHU216HW,2013-04-09 15:19:00,
2013-04-09 08:22:00,47.0,32.1,29.71,North,0,6.9,8.3,56,0.00,,,0.06,WUHU216HW,2013-04-09 15:22:00,
2013-04-09 08:23:00,47.2,31.8,29.71,North,0,9.2,9.2,55,0.00,,,0.06,WUHU216HW,2013-04-09 15:23:00,
2013-04-09 08:24:00,47.0,31.6,29.71,NNW,338,5.1,11.2,55,0.00,,,0.06,WUHU216HW,2013-04-09 15:24:00,
2013-04-09 08:27:00,47.2,32.2,29.71,North,0,5.8,11.2,56,0.00,,,0.06,WUHU216HW,2013-04-09 15:27:00,
2013-04-09 08:28:00,47.2,32.2,29.71,NNW,338,4.3,11.2,56,0.00,,,0.06,WUHU216HW,2013-04-09 15:28:00,
2013-04-09 08:30:00,47.2,31.8,29.71,NNW,338,4.7,11.2,55,0.00,,,0.06,WUHU216HW,2013-04-09 15:30:00,
2013-04-09 08:32:00,47.2,31.8,29.72,North,0,4.7,11.2,55,0.00,,,0.06,WUHU216HW,2013-04-09 15:32:00,
2013-04-09 08:33:00,47.2,31.8,29.72,North,0,6.5,11.2,55,0.00,,,0.06,WUHU216HW,2013-04-09 15:33:00,
2013-04-09 08:34:00,47.2,31.8,29.72,North,0,4.9,9.4,55,0.00,,,0.06,WUHU216HW,2013-04-09 15:34:00,
2013-04-09 08:35:00,47.3,31.4,29.72,North,0,5.1,9.4,54,0.00,,,0.06,WUHU216HW,2013-04-09 15:35:00,
2013-04-09 08:37:00,47.5,31.6,29.72,West,270,5.1,9.4,54,0.00,,,0.06,WUHU216HW,2013-04-09 15:37:00,
2013-04-09 08:38:00,47.5,32.0,29.72,WNW,293,1.1,9.4,55,0.00,,,0.06,WUHU216HW,2013-04-09 15:38:00,
2013-04-09 08:40:00,47.9,32.4,29.72,NNW,338,5.6,9.4,55,0.00,,,0.06,WUHU216HW,2013-04-09 15:40:00,
2013-04-09 08:42:00,47.9,32.0,29.72,NNE,23,2.2,7.6,54,0.00,,,0.06,WUHU216HW,2013-04-09 15:42:00,
2013-04-09 08:43:00,47.9,32.0,29.72,NNW,338,1.1,7.6,54,0.00,,,0.06,WUHU216HW,2013-04-09 15:43:00,
2013-04-09 08:45:00,48.1,31.7,29.73,North,0,0.2,7.6,53,0.00,,,0.06,WUHU216HW,2013-04-09 15:45:00,
2013-04-09 08:47:00,48.4,32.5,29.73,ENE,68,6.0,7.6,54,0.00,,,0.06,WUHU216HW,2013-04-09 15:47:00,
2013-04-09 08:48:00,48.4,32.5,29.73,ENE,68,5.4,7.6,54,0.00,,,0.06,WUHU216HW,2013-04-09 15:48:00,
2013-04-09 08:50:00,48.6,32.7,29.72,ESE,113,6.9,6.9,54,0.00,,,0.06,WUHU216HW,2013-04-09 15:50:00,
2013-04-09 08:52:00,49.1,33.1,29.73,SE,135,6.7,8.5,54,0.00,,,0.06,WUHU216HW,2013-04-09 15:52:00,
2013-04-09 08:53:00,49.1,33.1,29.73,SSE,158,8.5,8.9,54,0.00,,,0.06,WUHU216HW,2013-04-09 15:53:00,
2013-04-09 08:55:00,49.7,33.7,29.73,SSE,158,7.2,8.9,54,0.00,,,0.06,WUHU216HW,2013-04-09 15:55:00,
2013-04-09 08:56:00,49.9,33.8,29.73,SSE,158,5.4,8.9,54,0.00,,,0.06,WUHU216HW,2013-04-09 15:56:00,
2013-04-09 08:57:00,50.0,34.0,29.72,East,90,6.3,8.9,54,0.00,,,0.06,WUHU216HW,2013-04-09 15:57:00,
2013-04-09 08:58:00,50.0,34.0,29.72,ENE,68,1.8,8.9,54,0.00,,,0.06,WUHU216HW,2013-04-09 15:58:00,
2013-04-09 09:00:00,50.6,34.0,29.73,SE,135,7.6,9.4,53,0.00,,,0.06,WUHU216HW,2013-04-09 16:00:00,
2013-04-09 09:01:00,50.8,33.8,29.73,SSE,158,4.5,9.4,52,0.00,,,0.06,WUHU216HW,2013-04-09 16:01:00,
2013-04-09 09:03:00,51.1,33.2,29.73,SSE,158,2.9,9.4,50,0.00,,,0.06,WUHU216HW,2013-04-09 16:03:00,
2013-04-09 09:05:00,51.3,31.7,29.73,West,270,6.3,9.4,47,0.00,,,0.06,WUHU216HW,2013-04-09 16:05:00,
2013-04-09 09:07:00,51.5,31.9,29.73,West,270,0.2,9.4,47,0.00,,,0.06,WUHU216HW,2013-04-09 16:07:00,
2013-04-09 09:08:00,51.3,31.7,29.73,SW,225,4.7,9.4,47,0.00,,,0.06,WUHU216HW,2013-04-09 16:08:00,
2013-04-09 09:09:00,51.3,31.7,29.73,SSW,203,4.0,9.4,47,0.00,,,0.06,WUHU216HW,2013-04-09 16:09:00,
2013-04-09 09:10:00,51.3,32.2,29.73,SSW,203,0.7,8.5,48,0.00,,,0.06,WUHU216HW,2013-04-09 16:10:00,
2013-04-09 09:12:00,51.3,31.2,29.73,WSW,248,3.4,8.5,46,0.00,,,0.06,WUHU216HW,2013-04-09 16:12:00,
2013-04-09 09:13:00,51.3,31.2,29.73,WSW,248,3.4,8.5,46,0.00,,,0.06,WUHU216HW,2013-04-09 16:13:00,
2013-04-09 09:14:00,51.3,31.7,29.73,West,270,6.9,8.5,47,0.00,,,0.06,WUHU216HW,2013-04-09 16:14:00,
2013-04-09 09:15:00,51.5,31.3,29.73,WSW,248,4.9,9.2,46,0.00,,,0.06,WUHU216HW,2013-04-09 16:15:00,
2013-04-09 09:17:00,51.3,31.2,29.73,WNW,293,6.3,9.2,46,0.00,,,0.06,WUHU216HW,2013-04-09 16:17:00,
2013-04-09 09:18:00,51.3,31.2,29.73,SW,225,6.0,9.2,46,0.00,,,0.06,WUHU216HW,2013-04-09 16:18:00,
2013-04-09 09:20:00,51.3,30.6,29.73,WSW,248,6.9,9.2,45,0.00,,,0.06,WUHU216HW,2013-04-09 16:20:00,
2013-04-09 09:21:00,51.1,31.0,29.73,WSW,248,8.7,9.6,46,0.00,,,0.06,WUHU216HW,2013-04-09 16:21:00,
2013-04-09 09:22:00,51.1,31.0,29.73,SSW,203,6.9,10.7,46,0.00,,,0.06,WUHU216HW,2013-04-09 16:22:00,
2013-04-09 09:23:00,51.1,31.0,29.73,SW,225,7.4,10.7,46,0.00,,,0.06,WUHU216HW,2013-04-09 16:23:00,
2013-04-09 09:25:00,51.1,31.0,29.73,South,180,3.8,10.7,46,0.00,,,0.06,WUHU216HW,2013-04-09 16:25:00,
2013-04-09 09:26:00,51.3,31.2,29.73,WSW,248,5.8,10.7,46,0.00,,,0.06,WUHU216HW,2013-04-09 16:26:00,
2013-04-09 09:27:00,51.5,31.9,29.73,WSW,248,2.7,10.7,47,0.00,,,0.06,WUHU216HW,2013-04-09 16:27:00,
2013-04-09 09:29:00,51.5,31.9,29.73,SSW,203,4.9,10.7,47,0.00,,,0.06,WUHU216HW,2013-04-09 16:29:00,
2013-04-09 09:30:00,51.7,31.4,29.74,West,270,6.0,10.7,46,0.00,,,0.06,WUHU216HW,2013-04-09 16:30:00,
2013-04-09 09:31:00,51.8,31.6,29.74,West,270,6.9,10.7,46,0.00,,,0.06,WUHU216HW,2013-04-09 16:31:00,
2013-04-09 09:32:00,51.8,31.1,29.74,WSW,248,5.1,8.5,45,0.00,,,0.06,WUHU216HW,2013-04-09 16:32:00,
2013-04-09 09:34:00,52.0,30.7,29.74,SW,225,1.6,6.9,44,0.00,,,0.06,WUHU216HW,2013-04-09 16:34:00,
2013-04-09 09:35:00,52.0,31.2,29.74,WSW,248,2.7,6.9,45,0.00,,,0.06,WUHU216HW,2013-04-09 16:35:00,
2013-04-09 09:37:00,52.2,30.8,29.73,WSW,248,6.3,6.9,44,0.00,,,0.06,WUHU216HW,2013-04-09 16:37:00,
2013-04-09 09:39:00,52.4,31.0,29.74,West,270,2.0,8.9,44,0.00,,,0.06,WUHU216HW,2013-04-09 16:39:00,
2013-04-09 09:40:00,52.6,31.1,29.73,SW,225,1.6,8.9,44,0.00,,,0.06,WUHU216HW,2013-04-09 16:40:00,
2013-04-09 09:42:00,52.6,31.1,29.73,West,270,4.7,8.9,44,0.00,,,0.06,WUHU216HW,2013-04-09 16:42:00,
2013-04-09 09:43:00,52.7,31.3,29.74,SSW,203,5.1,8.9,44,0.00,,,0.06,WUHU216HW,2013-04-09 16:43:00,
2013-04-09 09:45:00,52.9,32.1,29.74,SW,225,5.1,8.9,45,0.00,,,0.06,WUHU216HW,2013-04-09 16:45:00,
2013-04-09 09:47:00,53.5,31.4,29.74,SW,225,9.8,11.2,43,0.00,,,0.06,WUHU216HW,2013-04-09 16:47:00,
2013-04-09 09:48:00,53.5,30.9,29.73,WSW,248,10.5,11.2,42,0.00,,,0.06,WUHU216HW,2013-04-09 16:48:00,
2013-04-09 09:50:00,53.6,31.0,29.73,WSW,248,7.2,11.2,42,0.00,,,0.06,WUHU216HW,2013-04-09 16:50:00,
2013-04-09 09:51:00,53.6,31.0,29.73,SW,225,11.6,12.1,42,0.00,,,0.06,WUHU216HW,2013-04-09 16:51:00,
2013-04-09 09:52:00,53.6,31.0,29.73,WSW,248,13.4,13.4,42,0.00,,,0.06,WUHU216HW,2013-04-09 16:52:00,
2013-04-09 09:53:00,53.6,29.9,29.73,West,270,18.6,18.6,40,0.00,,,0.06,WUHU216HW,2013-04-09 16:53:00,
2013-04-09 09:55:00,53.8,30.1,29.73,SW,225,5.1,18.6,40,0.00,,,0.06,WUHU216HW,2013-04-09 16:55:00,
2013-04-09 09:56:00,53.8,30.6,29.73,SSW,203,5.6,18.6,41,0.00,,,0.06,WUHU216HW,2013-04-09 16:56:00,
2013-04-09 09:57:00,54.0,31.9,29.73,South,180,12.5,18.6,43,0.00,,,0.06,WUHU216HW,2013-04-09 16:57:00,
2013-04-09 09:58:00,54.0,31.9,29.73,South,180,8.9,18.6,43,0.00,,,0.06,WUHU216HW,2013-04-09 16:58:00,
2013-04-09 10:00:00,54.4,31.1,29.73,SW,225,8.1,18.6,41,0.00,,,0.06,WUHU216HW,2013-04-09 17:00:00,
2013-04-09 10:02:00,54.4,31.1,29.73,SW,225,10.7,18.6,41,0.00,,,0.06,WUHU216HW,2013-04-09 17:02:00,
2013-04-09 10:03:00,54.4,31.7,29.73,SSW,203,10.3,15.4,42,0.00,,,0.06,WUHU216HW,2013-04-09 17:03:00,
2013-04-09 10:05:00,54.4,31.1,29.74,SE,135,6.5,14.1,41,0.00,,,0.06,WUHU216HW,2013-04-09 17:05:00,
2013-04-09 10:07:00,54.4,31.1,29.74,SW,225,7.8,14.1,41,0.00,,,0.06,WUHU216HW,2013-04-09 17:07:00,
2013-04-09 10:08:00,54.5,31.2,29.74,SW,225,6.9,14.1,41,0.00,,,0.06,WUHU216HW,2013-04-09 17:08:00,
2013-04-09 10:10:00,54.7,32.0,29.73,South,180,2.7,14.1,42,0.00,,,0.06,WUHU216HW,2013-04-09 17:10:00,
2013-04-09 10:13:00,54.9,31.1,29.74,South,180,7.6,12.8,40,0.00,,,0.06,WUHU216HW,2013-04-09 17:13:00,
2013-04-09 10:14:00,55.1,31.1,29.74,SSW,203,10.5,13.2,40,0.00,,,0.06,WUHU216HW,2013-04-09 17:14:00,
2013-04-09 10:16:00,55.1,30.5,29.74,SW,225,8.9,13.2,39,0.00,,,0.06,WUHU216HW,2013-04-09 17:16:00,
2013-04-09 10:18:00,55.6,31.0,29.74,WSW,248,11.0,13.2,39,0.00,,,0.06,WUHU216HW,2013-04-09 17:18:00,
2013-04-09 10:19:00,55.8,30.4,29.74,SW,225,9.4,14.5,38,0.00,,,0.06,WUHU216HW,2013-04-09 17:19:00,
2013-04-09 10:20:00,55.8,30.4,29.74,West,270,10.5,14.5,38,0.00,,,0.06,WUHU216HW,2013-04-09 17:20:00,
2013-04-09 10:23:00,55.8,30.4,29.74,WSW,248,8.3,14.5,38,0.00,,,0.06,WUHU216HW,2013-04-09 17:23:00,
2013-04-09 10:25:00,56.0,30.6,29.74,West,270,12.8,14.5,38,0.00,,,0.06,WUHU216HW,2013-04-09 17:25:00,
2013-04-09 10:26:00,55.8,29.7,29.74,SW,225,17.2,17.2,37,0.00,,,0.06,WUHU216HW,2013-04-09 17:26:00,
2013-04-09 10:28:00,55.8,29.7,29.74,SSW,203,14.3,17.2,37,0.00,,,0.06,WUHU216HW,2013-04-09 17:28:00,
2013-04-09 10:30:00,55.8,29.7,29.74,WSW,248,9.8,17.2,37,0.00,,,0.06,WUHU216HW,2013-04-09 17:30:00,
2013-04-09 10:31:00,55.8,29.7,29.74,SW,225,11.6,17.2,37,0.00,,,0.06,WUHU216HW,2013-04-09 17:31:00,
2013-04-09 10:33:00,55.6,28.9,29.74,WSW,248,6.0,17.2,36,0.00,,,0.06,WUHU216HW,2013-04-09 17:33:00,
2013-04-09 10:36:00,55.8,29.0,29.74,WSW,248,23.7,23.7,36,0.00,,,0.06,WUHU216HW,2013-04-09 17:36:00,
2013-04-09 10:38:00,56.2,30.1,29.74,WSW,248,7.6,23.7,37,0.00,,,0.06,WUHU216HW,2013-04-09 17:38:00,
2013-04-09 10:39:00,56.2,30.1,29.74,SSW,203,9.8,23.7,37,0.00,,,0.06,WUHU216HW,2013-04-09 17:39:00,
2013-04-09 10:41:00,56.3,30.3,29.74,SSW,203,4.5,23.7,37,0.00,,,0.06,WUHU216HW,2013-04-09 17:41:00,
2013-04-09 10:43:00,56.7,29.2,29.74,WSW,248,9.8,23.7,35,0.00,,,0.06,WUHU216HW,2013-04-09 17:43:00,
2013-04-09 10:44:00,56.5,29.0,29.74,WSW,248,17.2,23.7,35,0.00,,,0.06,WUHU216HW,2013-04-09 17:44:00,
2013-04-09 10:46:00,56.3,28.1,29.74,SW,225,7.6,17.2,34,0.00,,,0.06,WUHU216HW,2013-04-09 17:46:00,
2013-04-09 10:47:00,56.3,28.1,29.74,SSW,203,9.2,17.2,34,0.00,,,0.06,WUHU216HW,2013-04-09 17:47:00,
2013-04-09 10:49:00,56.0,27.8,29.74,WSW,248,9.4,17.2,34,0.00,,,0.06,WUHU216HW,2013-04-09 17:49:00,
2013-04-09 10:52:00,55.4,28.7,29.74,West,270,9.4,17.2,36,0.00,,,0.06,WUHU216HW,2013-04-09 17:52:00,
2013-04-09 10:55:00,55.1,29.1,29.74,SW,225,6.3,14.8,37,0.00,,,0.06,WUHU216HW,2013-04-09 17:55:00,
2013-04-09 10:57:00,55.3,28.5,29.74,WSW,248,4.9,13.4,36,0.00,,,0.06,WUHU216HW,2013-04-09 17:57:00,
2013-04-09 11:00:00,55.1,29.1,29.74,SW,225,7.6,13.4,37,0.00,,,0.06,WUHU216HW,2013-04-09 18:00:00,
2013-04-09 11:02:00,55.3,29.3,29.74,West,270,2.5,12.8,37,0.00,,,0.06,WUHU216HW,2013-04-09 18:02:00,
2013-04-09 11:05:00,55.4,28.7,29.74,WSW,248,8.5,9.8,36,0.00,,,0.06,WUHU216HW,2013-04-09 18:05:00,
2013-04-09 11:07:00,55.4,29.4,29.74,WSW,248,9.4,9.8,37,0.00,,,0.06,WUHU216HW,2013-04-09 18:07:00,
2013-04-09 11:08:00,55.4,29.4,29.74,SW,225,5.4,10.5,37,0.00,,,0.06,WUHU216HW,2013-04-09 18:08:00,
2013-04-09 11:10:00,55.6,30.2,29.74,WSW,248,12.8,12.8,38,0.00,,,0.06,WUHU216HW,2013-04-09 18:10:00,
2013-04-09 11:12:00,55.8,29.0,29.74,WSW,248,11.2,12.8,36,0.00,,,0.06,WUHU216HW,2013-04-09 18:12:00,
2013-04-09 11:13:00,55.8,29.0,29.74,WSW,248,14.1,14.1,36,0.00,,,0.06,WUHU216HW,2013-04-09 18:13:00,
2013-04-09 11:15:00,55.4,33.2,29.75,WSW,248,19.2,22.4,43,0.00,,,0.06,WUHU216HW,2013-04-09 18:15:00,
2013-04-09 11:17:00,54.7,33.1,29.75,SW,225,9.2,22.4,44,0.00,,,0.06,WUHU216HW,2013-04-09 18:17:00,
2013-04-09 11:18:00,54.0,31.9,29.75,SSW,203,4.0,22.4,43,0.00,,,0.06,WUHU216HW,2013-04-09 18:18:00,
2013-04-09 11:20:00,53.6,32.1,29.75,SW,225,5.8,22.4,44,0.00,,,0.06,WUHU216HW,2013-04-09 18:20:00,
2013-04-09 11:22:00,53.6,32.7,29.75,SW,225,4.3,22.4,45,0.00,,,0.06,WUHU216HW,2013-04-09 18:22:00,
2013-04-09 11:23:00,53.6,33.2,29.75,SW,225,10.3,22.4,46,0.00,,,0.06,WUHU216HW,2013-04-09 18:23:00,
2013-04-09 11:26:00,53.6,32.7,29.75,SW,225,5.4,13.2,45,0.00,,,0.06,WUHU216HW,2013-04-09 18:26:00,
2013-04-09 11:27:00,53.8,32.9,29.75,SW,225,7.2,11.6,45,0.00,,,0.06,WUHU216HW,2013-04-09 18:27:00,
2013-04-09 11:29:00,54.0,31.9,29.75,WSW,248,6.9,13.4,43,0.00,,,0.06,WUHU216HW,2013-04-09 18:29:00,
2013-04-09 11:32:00,54.2,32.0,29.75,SW,225,8.1,13.4,43,0.00,,,0.06,WUHU216HW,2013-04-09 18:32:00,
2013-04-09 11:34:00,54.2,31.5,29.75,SW,225,11.2,13.4,42,0.00,,,0.06,WUHU216HW,2013-04-09 18:34:00,
2013-04-09 11:37:00,54.2,30.3,29.75,West,270,14.1,19.7,40,0.00,,,0.06,WUHU216HW,2013-04-09 18:37:00,
2013-04-09 11:39:00,54.0,31.3,29.75,SW,225,10.5,19.7,42,0.00,,,0.06,WUHU216HW,2013-04-09 18:39:00,
2013-04-09 11:43:00,53.5,30.2,29.75,WNW,293,14.8,19.7,41,0.00,,,0.06,WUHU216HW,2013-04-09 18:43:00,
2013-04-09 11:45:00,53.3,31.8,29.75,West,270,9.8,19.7,44,0.00,,,0.06,WUHU216HW,2013-04-09 18:45:00,
2013-04-09 11:48:00,52.7,30.2,29.75,North,0,7.6,17.2,42,0.00,,,0.06,WUHU216HW,2013-04-09 18:48:00,
2013-04-09 11:50:00,52.7,31.3,29.75,West,270,13.0,17.2,44,0.00,,,0.06,WUHU216HW,2013-04-09 18:50:00,
2013-04-09 11:53:00,52.7,27.7,29.75,West,270,10.5,24.8,38,0.00,,,0.06,WUHU216HW,2013-04-09 18:53:00,
2013-04-09 11:55:00,52.4,28.7,29.76,West,270,14.3,24.8,40,0.00,,,0.06,WUHU216HW,2013-04-09 18:55:00,
2013-04-09 11:58:00,52.0,29.5,29.75,West,270,13.4,24.8,42,0.00,,,0.06,WUHU216HW,2013-04-09 18:58:00,
2013-04-09 12:00:00,51.7,29.3,29.75,West,270,15.0,24.8,42,0.00,,,0.06,WUHU216HW,2013-04-09 19:00:00,
2013-04-09 12:03:00,51.5,27.9,29.75,SW,225,16.8,19.0,40,0.00,,,0.06,WUHU216HW,2013-04-09 19:03:00,
2013-04-09 12:04:00,51.5,27.9,29.75,WSW,248,15.9,19.0,40,0.00,,,0.06,WUHU216HW,2013-04-09 19:04:00,
2013-04-09 12:05:00,51.5,28.5,29.75,WSW,248,15.9,19.0,41,0.00,,,0.06,WUHU216HW,2013-04-09 19:05:00,
2013-04-09 12:09:00,51.7,27.5,29.75,WSW,248,12.3,19.2,39,0.00,,,0.06,WUHU216HW,2013-04-09 19:09:00,
2013-04-09 12:10:00,51.7,27.5,29.75,SW,225,9.4,19.2,39,0.00,,,0.06,WUHU216HW,2013-04-09 19:10:00,
2013-04-09 12:11:00,52.0,28.5,29.74,WSW,248,12.1,19.2,40,0.00,,,0.06,WUHU216HW,2013-04-09 19:11:00,
2013-04-09 12:14:00,52.9,28.5,29.74,West,270,16.6,19.2,39,0.00,,,0.06,WUHU216HW,2013-04-09 19:14:00,
2013-04-09 12:15:00,52.9,27.2,29.74,WSW,248,18.3,19.2,37,0.00,,,0.06,WUHU216HW,2013-04-09 19:15:00,
2013-04-09 12:16:00,53.5,25.7,29.74,West,270,15.4,22.1,34,0.00,,,0.06,WUHU216HW,2013-04-09 19:16:00,
2013-04-09 12:17:00,53.6,25.7,29.74,West,270,15.4,22.1,34,0.00,,,0.06,WUHU216HW,2013-04-09 19:17:00,
2013-04-09 12:19:00,54.0,26.7,29.74,West,270,17.2,22.1,35,0.00,,,0.06,WUHU216HW,2013-04-09 19:19:00,
2013-04-09 12:20:00,54.2,26.2,29.74,WSW,248,20.4,22.1,34,0.00,,,0.06,WUHU216HW,2013-04-09 19:20:00,
2013-04-09 12:22:00,54.4,26.4,29.74,WSW,248,11.4,22.1,34,0.00,,,0.06,WUHU216HW,2013-04-09 19:22:00,
2013-04-09 12:24:00,54.9,26.1,29.74,WSW,248,16.3,22.1,33,0.00,,,0.06,WUHU216HW,2013-04-09 19:24:00,
2013-04-09 12:25:00,54.9,26.8,29.74,West,270,17.9,22.1,34,0.00,,,0.06,WUHU216HW,2013-04-09 19:25:00,
2013-04-09 12:27:00,55.1,24.9,29.74,West,270,12.8,20.4,31,0.00,,,0.06,WUHU216HW,2013-04-09 19:27:00,
2013-04-09 12:30:00,55.6,25.4,29.74,West,270,18.6,23.7,31,0.00,,,0.06,WUHU216HW,2013-04-09 19:30:00,
2013-04-09 12:32:00,55.8,23.9,29.74,WNW,293,18.6,25.5,29,0.00,,,0.06,WUHU216HW,2013-04-09 19:32:00,
2013-04-09 12:35:00,55.8,23.9,29.74,West,270,21.7,25.5,29,0.00,,,0.06,WUHU216HW,2013-04-09 19:35:00,
2013-04-09 12:37:00,55.6,24.7,29.74,WSW,248,11.4,25.5,30,0.00,,,0.06,WUHU216HW,2013-04-09 19:37:00,
2013-04-09 12:38:00,55.6,24.7,29.74,WSW,248,11.4,25.5,30,0.00,,,0.06,WUHU216HW,2013-04-09 19:38:00,
2013-04-09 12:40:00,55.8,23.0,29.74,West,270,17.9,25.5,28,0.00,,,0.06,WUHU216HW,2013-04-09 19:40:00,
2013-04-09 12:42:00,55.8,22.0,29.74,SW,225,19.9,25.5,27,0.00,,,0.06,WUHU216HW,2013-04-09 19:42:00,
2013-04-09 12:43:00,55.8,23.0,29.74,WSW,248,19.2,23.5,28,0.00,,,0.06,WUHU216HW,2013-04-09 19:43:00,
2013-04-09 12:44:00,55.8,23.0,29.74,WSW,248,17.9,23.5,28,0.00,,,0.06,WUHU216HW,2013-04-09 19:44:00,
2013-04-09 12:45:00,56.0,22.1,29.74,WSW,248,14.8,23.5,27,0.00,,,0.06,WUHU216HW,2013-04-09 19:45:00,
2013-04-09 12:47:00,56.2,22.3,29.74,WSW,248,16.3,23.5,27,0.00,,,0.06,WUHU216HW,2013-04-09 19:47:00,
2013-04-09 12:48:00,56.3,22.4,29.74,WSW,248,20.6,23.5,27,0.00,,,0.06,WUHU216HW,2013-04-09 19:48:00,
2013-04-09 12:49:00,56.3,20.5,29.74,WSW,248,16.6,23.5,25,0.00,,,0.06,WUHU216HW,2013-04-09 19:49:00,
2013-04-09 12:50:00,56.3,20.5,29.74,West,270,12.1,23.5,25,0.00,,,0.06,WUHU216HW,2013-04-09 19:50:00,
2013-04-09 12:52:00,56.5,22.6,29.74,WSW,248,12.5,20.6,27,0.00,,,0.06,WUHU216HW,2013-04-09 19:52:00,
2013-04-09 12:53:00,56.5,22.6,29.74,NW,315,10.1,20.6,27,0.00,,,0.06,WUHU216HW,2013-04-09 19:53:00,
2013-04-09 12:54:00,56.7,22.8,29.74,West,270,13.9,20.6,27,0.00,,,0.06,WUHU216HW,2013-04-09 19:54:00,
2013-04-09 12:56:00,56.9,23.0,29.74,West,270,20.1,24.8,27,0.00,,,0.06,WUHU216HW,2013-04-09 19:56:00,
2013-04-09 12:57:00,56.9,21.1,29.74,WNW,293,8.9,24.8,25,0.00,,,0.06,WUHU216HW,2013-04-09 19:57:00,
2013-04-09 12:59:00,56.5,22.6,29.74,WSW,248,11.4,24.8,27,0.00,,,0.06,WUHU216HW,2013-04-09 19:59:00,
2013-04-09 13:01:00,56.9,23.0,29.74,WSW,248,25.5,26.4,27,0.00,,,0.06,WUHU216HW,2013-04-09 20:01:00,
2013-04-09 13:03:00,56.7,21.8,29.74,West,270,26.4,26.4,26,0.00,,,0.06,WUHU216HW,2013-04-09 20:03:00,
2013-04-09 13:04:00,56.5,22.6,29.74,WSW,248,21.5,28.2,27,0.00,,,0.06,WUHU216HW,2013-04-09 20:04:00,
2013-04-09 13:05:00,56.3,22.4,29.74,WSW,248,21.5,28.2,27,0.00,,,0.06,WUHU216HW,2013-04-09 20:05:00,
2013-04-09 13:06:00,56.2,20.4,29.74,West,270,19.9,28.2,25,0.00,,,0.06,WUHU216HW,2013-04-09 20:06:00,
2013-04-09 13:08:00,56.3,23.4,29.74,West,270,24.2,28.2,28,0.00,,,0.06,WUHU216HW,2013-04-09 20:08:00,
2013-04-09 13:09:00,56.3,22.4,29.74,SW,225,18.6,28.2,27,0.00,,,0.06,WUHU216HW,2013-04-09 20:09:00,
2013-04-09 13:10:00,56.3,22.4,29.74,West,270,16.6,28.2,27,0.00,,,0.06,WUHU216HW,2013-04-09 20:10:00,
2013-04-09 13:11:00,56.5,24.5,29.74,WSW,248,18.8,28.2,29,0.00,,,0.06,WUHU216HW,2013-04-09 20:11:00,
2013-04-09 13:13:00,56.5,24.5,29.74,WSW,248,14.8,28.2,29,0.00,,,0.06,WUHU216HW,2013-04-09 20:13:00,
2013-04-09 13:15:00,56.9,24.9,29.75,WSW,248,14.3,25.5,29,0.00,,,0.06,WUHU216HW,2013-04-09 20:15:00,
2013-04-09 13:16:00,56.9,24.9,29.75,WSW,248,16.6,25.5,29,0.00,,,0.06,WUHU216HW,2013-04-09 20:16:00,
2013-04-09 13:18:00,57.1,25.9,29.74,SW,225,14.3,24.2,30,0.00,,,0.06,WUHU216HW,2013-04-09 20:18:00,
2013-04-09 13:20:00,57.2,25.1,29.74,WSW,248,15.0,20.1,29,0.00,,,0.06,WUHU216HW,2013-04-09 20:20:00,
2013-04-09 13:21:00,57.4,24.4,29.74,WSW,248,15.4,18.6,28,0.00,,,0.06,WUHU216HW,2013-04-09 20:21:00,
2013-04-09 13:23:00,57.4,24.4,29.75,WSW,248,17.7,21.5,28,0.00,,,0.06,WUHU216HW,2013-04-09 20:23:00,
2013-04-09 13:25:00,57.2,24.2,29.75,WSW,248,17.9,21.5,28,0.00,,,0.06,WUHU216HW,2013-04-09 20:25:00,
2013-04-09 13:26:00,57.2,24.2,29.75,West,270,15.0,21.5,28,0.00,,,0.06,WUHU216HW,2013-04-09 20:26:00,
2013-04-09 13:27:00,56.9,23.9,29.75,WSW,248,12.5,21.5,28,0.00,,,0.06,WUHU216HW,2013-04-09 20:27:00,
2013-04-09 13:29:00,56.5,24.5,29.75,SW,225,8.5,21.5,29,0.00,,,0.06,WUHU216HW,2013-04-09 20:29:00,
2013-04-09 13:30:00,56.7,25.7,29.75,WSW,248,13.6,21.5,30,0.00,,,0.06,WUHU216HW,2013-04-09 20:30:00,
2013-04-09 13:32:00,56.7,25.7,29.75,WSW,248,16.1,21.5,30,0.00,,,0.06,WUHU216HW,2013-04-09 20:32:00,
2013-04-09 13:34:00,56.7,24.7,29.75,West,270,18.8,20.8,29,0.00,,,0.06,WUHU216HW,2013-04-09 20:34:00,
2013-04-09 13:37:00,56.3,25.3,29.75,WNW,293,17.2,26.6,30,0.00,,,0.06,WUHU216HW,2013-04-09 20:37:00,
2013-04-09 13:38:00,56.2,25.1,29.75,WNW,293,14.5,26.6,30,0.00,,,0.06,WUHU216HW,2013-04-09 20:38:00,
2013-04-09 13:39:00,56.0,26.4,29.75,West,270,17.9,26.6,32,0.00,,,0.06,WUHU216HW,2013-04-09 20:39:00,
2013-04-09 13:42:00,56.3,26.7,29.76,West,270,18.6,26.6,32,0.00,,,0.06,WUHU216HW,2013-04-09 20:42:00,
2013-04-09 13:43:00,56.3,26.7,29.76,West,270,17.4,26.6,32,0.00,,,0.06,WUHU216HW,2013-04-09 20:43:00,
2013-04-09 13:45:00,56.2,26.6,29.75,WNW,293,14.3,26.6,32,0.00,,,0.06,WUHU216HW,2013-04-09 20:45:00,
2013-04-09 13:47:00,55.8,26.2,29.75,West,270,16.1,25.3,32,0.00,,,0.06,WUHU216HW,2013-04-09 20:47:00,
2013-04-09 13:48:00,55.8,26.2,29.76,West,270,16.1,25.3,32,0.00,,,0.06,WUHU216HW,2013-04-09 20:48:00,
2013-04-09 13:50:00,56.0,25.7,29.76,West,270,14.3,25.3,31,0.00,,,0.06,WUHU216HW,2013-04-09 20:50:00,
2013-04-09 13:52:00,56.2,25.8,29.75,WSW,248,12.3,18.3,31,0.00,,,0.06,WUHU216HW,2013-04-09 20:52:00,
2013-04-09 13:53:00,56.3,26.0,29.75,West,270,13.2,17.2,31,0.00,,,0.06,WUHU216HW,2013-04-09 20:53:00,
2013-04-09 13:55:00,56.5,26.2,29.75,West,270,13.9,17.2,31,0.00,,,0.06,WUHU216HW,2013-04-09 20:55:00,
2013-04-09 13:58:00,56.7,26.3,29.75,West,270,16.8,17.2,31,0.00,,,0.06,WUHU216HW,2013-04-09 20:58:00,
2013-04-09 13:59:00,56.9,25.7,29.76,West,270,13.4,19.2,30,0.00,,,0.06,WUHU216HW,2013-04-09 20:59:00,
2013-04-09 14:00:00,57.1,26.6,29.75,West,270,18.1,19.2,31,0.00,,,0.06,WUHU216HW,2013-04-09 21:00:00,
2013-04-09 14:03:00,57.2,25.1,29.75,WSW,248,11.6,21.5,29,0.00,,,0.06,WUHU216HW,2013-04-09 21:03:00,
2013-04-09 14:05:00,57.6,25.5,29.75,WSW,248,9.6,21.5,29,0.00,,,0.06,WUHU216HW,2013-04-09 21:05:00,
2013-04-09 14:08:00,58.0,24.9,29.75,WSW,248,24.2,24.2,28,0.00,,,0.06,WUHU216HW,2013-04-09 21:08:00,
2013-04-09 14:10:00,58.0,24.9,29.75,WSW,248,20.8,24.2,28,0.00,,,0.06,WUHU216HW,2013-04-09 21:10:00,
2013-04-09 14:11:00,57.8,23.7,29.75,WSW,248,11.4,24.2,27,0.00,,,0.06,WUHU216HW,2013-04-09 21:11:00,
2013-04-09 14:13:00,57.8,25.7,29.75,WSW,248,19.0,24.2,29,0.00,,,0.06,WUHU216HW,2013-04-09 21:13:00,
2013-04-09 14:15:00,58.1,25.0,29.75,WSW,248,10.7,24.2,28,0.00,,,0.06,WUHU216HW,2013-04-09 21:15:00,
2013-04-09 14:17:00,58.1,25.0,29.75,WSW,248,12.1,24.2,28,0.00,,,0.06,WUHU216HW,2013-04-09 21:17:00,
2013-04-09 14:18:00,58.3,25.1,29.75,West,270,16.3,23.0,28,0.00,,,0.06,WUHU216HW,2013-04-09 21:18:00,
2013-04-09 14:19:00,58.5,25.3,29.75,WNW,293,12.1,22.1,28,0.00,,,0.06,WUHU216HW,2013-04-09 21:19:00,
2013-04-09 14:21:00,58.5,24.3,29.75,WSW,248,13.2,22.1,27,0.00,,,0.06,WUHU216HW,2013-04-09 21:21:00,
2013-04-09 14:23:00,58.7,24.5,29.75,West,270,12.3,22.1,27,0.00,,,0.06,WUHU216HW,2013-04-09 21:23:00,
2013-04-09 14:24:00,58.7,24.5,29.75,West,270,19.2,22.1,27,0.00,,,0.06,WUHU216HW,2013-04-09 21:24:00,
2013-04-09 14:26:00,58.7,24.5,29.75,WSW,248,11.4,19.2,27,0.00,,,0.06,WUHU216HW,2013-04-09 21:26:00,
2013-04-09 14:28:00,58.5,24.3,29.75,SW,225,14.8,20.6,27,0.00,,,0.06,WUHU216HW,2013-04-09 21:28:00,
2013-04-09 14:29:00,58.5,24.3,29.75,SW,225,14.3,20.6,27,0.00,,,0.06,WUHU216HW,2013-04-09 21:29:00,
2013-04-09 14:31:00,58.3,24.2,29.75,West,270,18.3,20.6,27,0.00,,,0.06,WUHU216HW,2013-04-09 21:31:00,
2013-04-09 14:33:00,58.3,24.2,29.75,WSW,248,16.8,20.6,27,0.00,,,0.06,WUHU216HW,2013-04-09 21:33:00,
2013-04-09 14:34:00,58.1,24.0,29.75,SW,225,17.9,20.6,27,0.00,,,0.06,WUHU216HW,2013-04-09 21:34:00,
2013-04-09 14:35:00,58.1,25.9,29.75,WSW,248,17.2,22.6,29,0.00,,,0.06,WUHU216HW,2013-04-09 21:35:00,
2013-04-09 14:36:00,58.1,25.9,29.75,WSW,248,14.3,22.6,29,0.00,,,0.06,WUHU216HW,2013-04-09 21:36:00,
2013-04-09 14:38:00,58.0,25.8,29.75,WSW,248,19.9,22.6,29,0.00,,,0.06,WUHU216HW,2013-04-09 21:38:00,
2013-04-09 14:39:00,57.8,26.6,29.76,WSW,248,26.6,26.8,30,0.00,,,0.06,WUHU216HW,2013-04-09 21:39:00,
2013-04-09 14:41:00,57.2,26.8,29.76,West,270,18.3,26.8,31,0.00,,,0.06,WUHU216HW,2013-04-09 21:41:00,
2013-04-09 14:43:00,56.5,26.8,29.76,West,270,13.9,26.8,32,0.00,,,0.06,WUHU216HW,2013-04-09 21:43:00,
2013-04-09 14:45:00,56.5,26.8,29.76,WSW,248,15.2,26.8,32,0.00,,,0.06,WUHU216HW,2013-04-09 21:45:00,
2013-04-09 14:46:00,56.2,27.9,29.76,West,270,18.1,26.8,34,0.00,,,0.06,WUHU216HW,2013-04-09 21:46:00,
2013-04-09 14:48:00,55.3,29.3,29.76,WSW,248,20.6,28.6,37,0.00,,,0.06,WUHU216HW,2013-04-09 21:48:00,
2013-04-09 14:50:00,54.5,29.4,29.76,WSW,248,18.6,28.6,38,0.00,,,0.06,WUHU216HW,2013-04-09 21:50:00,
2013-04-09 14:51:00,54.0,28.8,29.77,WSW,248,12.5,28.6,38,0.00,,,0.06,WUHU216HW,2013-04-09 21:51:00,
2013-04-09 14:52:00,54.0,28.8,29.77,WSW,248,12.5,28.6,38,0.00,,,0.06,WUHU216HW,2013-04-09 21:52:00,
2013-04-09 14:53:00,53.8,29.3,29.76,WSW,248,11.4,28.6,39,0.00,,,0.06,WUHU216HW,2013-04-09 21:53:00,
2013-04-09 14:55:00,53.6,29.2,29.77,WSW,248,10.5,28.6,39,0.00,,,0.06,WUHU216HW,2013-04-09 21:55:00,
2013-04-09 14:57:00,53.8,29.3,29.76,WSW,248,6.9,24.8,39,0.00,,,0.06,WUHU216HW,2013-04-09 21:57:00,
2013-04-09 14:58:00,53.8,29.3,29.76,SW,225,9.2,23.7,39,0.00,,,0.06,WUHU216HW,2013-04-09 21:58:00,
2013-04-09 15:00:00,54.2,29.7,29.76,SW,225,12.1,16.8,39,0.00,,,0.06,WUHU216HW,2013-04-09 22:00:00,
2013-04-09 15:02:00,54.5,30.0,29.76,SW,225,6.3,13.4,39,0.00,,,0.06,WUHU216HW,2013-04-09 22:02:00,
2013-04-09 15:04:00,55.1,30.5,29.76,SW,225,8.5,13.4,39,0.00,,,0.06,WUHU216HW,2013-04-09 22:04:00,
2013-04-09 15:05:00,55.4,30.8,29.76,SSW,203,13.0,13.4,39,0.00,,,0.06,WUHU216HW,2013-04-09 22:05:00,
2013-04-09 15:07:00,55.8,31.2,29.76,SSW,203,14.5,15.4,39,0.00,,,0.06,WUHU216HW,2013-04-09 22:07:00,
2013-04-09 15:09:00,56.2,30.1,29.76,WSW,248,13.0,15.4,37,0.00,,,0.06,WUHU216HW,2013-04-09 22:09:00,
2013-04-09 15:10:00,56.2,30.1,29.76,West,270,11.4,15.4,37,0.00,,,0.06,WUHU216HW,2013-04-09 22:10:00,
2013-04-09 15:12:00,56.3,30.3,29.76,WSW,248,6.9,17.7,37,0.00,,,0.06,WUHU216HW,2013-04-09 22:12:00,
2013-04-09 15:14:00,56.5,31.1,29.77,SSE,158,16.3,17.7,38,0.00,,,0.06,WUHU216HW,2013-04-09 22:14:00,
2013-04-09 15:15:00,56.7,30.5,29.77,SSW,203,11.4,17.7,37,0.00,,,0.06,WUHU216HW,2013-04-09 22:15:00,
2013-04-09 15:17:00,56.9,30.7,29.76,SSW,203,12.8,17.7,37,0.00,,,0.06,WUHU216HW,2013-04-09 22:17:00,
2013-04-09 15:18:00,56.9,30.7,29.76,SSW,203,12.8,17.7,37,0.00,,,0.06,WUHU216HW,2013-04-09 22:18:00,
2013-04-09 15:19:00,56.9,30.7,29.76,SSW,203,14.3,17.7,37,0.00,,,0.06,WUHU216HW,2013-04-09 22:19:00,
2013-04-09 15:20:00,56.7,30.5,29.76,SSW,203,14.3,17.7,37,0.00,,,0.06,WUHU216HW,2013-04-09 22:20:00,
2013-04-09 15:22:00,56.5,29.7,29.76,SW,225,14.3,17.0,36,0.00,,,0.06,WUHU216HW,2013-04-09 22:22:00,
2013-04-09 15:23:00,56.5,29.7,29.77,SW,225,11.4,17.0,36,0.00,,,0.06,WUHU216HW,2013-04-09 22:23:00,
2013-04-09 15:24:00,56.3,29.5,29.77,WSW,248,6.3,17.0,36,0.00,,,0.06,WUHU216HW,2013-04-09 22:24:00,
2013-04-09 15:25:00,56.2,29.3,29.77,SW,225,11.4,17.0,36,0.00,,,0.06,WUHU216HW,2013-04-09 22:25:00,
2013-04-09 15:27:00,55.8,27.6,29.77,WSW,248,12.8,16.3,34,0.00,,,0.06,WUHU216HW,2013-04-09 22:27:00,
2013-04-09 15:28:00,55.8,27.6,29.77,SW,225,16.3,16.3,34,0.00,,,0.06,WUHU216HW,2013-04-09 22:28:00,
2013-04-09 15:30:00,55.3,27.2,29.77,WSW,248,15.2,19.0,34,0.00,,,0.06,WUHU216HW,2013-04-09 22:30:00,
2013-04-09 15:33:00,54.5,27.3,29.76,WSW,248,18.3,19.2,35,0.00,,,0.06,WUHU216HW,2013-04-09 22:33:00,
2013-04-09 15:35:00,54.2,27.6,29.76,SW,225,9.2,19.2,36,0.00,,,0.06,WUHU216HW,2013-04-09 22:35:00,
2013-04-09 15:38:00,54.2,28.3,29.76,South,180,7.2,19.2,37,0.00,,,0.06,WUHU216HW,2013-04-09 22:38:00,
2013-04-09 15:40:00,54.4,28.4,29.76,SW,225,10.1,19.2,37,0.00,,,0.06,WUHU216HW,2013-04-09 22:40:00,
2013-04-09 15:41:00,54.4,28.4,29.76,SSW,203,10.5,19.2,37,0.00,,,0.06,WUHU216HW,2013-04-09 22:41:00,
2013-04-09 15:43:00,55.1,28.4,29.76,SSW,203,4.7,14.3,36,0.00,,,0.06,WUHU216HW,2013-04-09 22:43:00,
2013-04-09 15:44:00,55.3,28.5,29.76,SW,225,6.9,12.1,36,0.00,,,0.06,WUHU216HW,2013-04-09 22:44:00,
2013-04-09 15:45:00,55.4,27.3,29.76,WSW,248,7.4,12.1,34,0.00,,,0.06,WUHU216HW,2013-04-09 22:45:00,
2013-04-09 15:46:00,55.8,27.6,29.76,WSW,248,8.3,12.1,34,0.00,,,0.06,WUHU216HW,2013-04-09 22:46:00,
2013-04-09 15:48:00,56.0,27.1,29.76,WSW,248,9.2,12.1,33,0.00,,,0.06,WUHU216HW,2013-04-09 22:48:00,
2013-04-09 15:49:00,56.5,26.8,29.75,WSW,248,9.2,12.1,32,0.00,,,0.06,WUHU216HW,2013-04-09 22:49:00,
2013-04-09 15:51:00,57.1,26.6,29.75,SW,225,9.6,12.1,31,0.00,,,0.06,WUHU216HW,2013-04-09 22:51:00,
2013-04-09 15:52:00,57.1,26.6,29.75,SW,225,9.6,12.1,31,0.00,,,0.06,WUHU216HW,2013-04-09 22:52:00,
2013-04-09 15:53:00,57.2,26.8,29.75,WSW,248,10.7,12.3,31,0.00,,,0.06,WUHU216HW,2013-04-09 22:53:00,
2013-04-09 15:55:00,57.4,26.3,29.75,WSW,248,13.0,13.6,30,0.00,,,0.06,WUHU216HW,2013-04-09 22:55:00,
2013-04-09 15:57:00,57.6,24.5,29.75,WSW,248,19.7,19.7,28,0.00,,,0.06,WUHU216HW,2013-04-09 22:57:00,
2013-04-09 15:58:00,57.6,24.5,29.75,West,270,14.5,21.5,28,0.00,,,0.06,WUHU216HW,2013-04-09 22:58:00,
2013-04-09 16:00:00,57.4,24.4,29.75,WSW,248,14.5,21.7,28,0.00,,,0.06,WUHU216HW,2013-04-09 23:00:00,
2013-04-09 16:02:00,57.4,24.4,29.75,WSW,248,13.6,21.7,28,0.00,,,0.06,WUHU216HW,2013-04-09 23:02:00,
2013-04-09 16:03:00,57.2,24.2,29.76,WSW,248,16.3,21.7,28,0.00,,,0.06,WUHU216HW,2013-04-09 23:03:00,
2013-04-09 16:05:00,57.1,25.0,29.76,WSW,248,14.5,21.7,29,0.00,,,0.06,WUHU216HW,2013-04-09 23:05:00,
2013-04-09 16:07:00,57.1,25.0,29.76,WSW,248,12.1,21.7,29,0.00,,,0.06,WUHU216HW,2013-04-09 23:07:00,
2013-04-09 16:08:00,56.9,24.9,29.76,WSW,248,12.8,21.7,29,0.00,,,0.06,WUHU216HW,2013-04-09 23:08:00,
2013-04-09 16:10:00,56.9,25.7,29.76,WSW,248,10.3,17.2,30,0.00,,,0.06,WUHU216HW,2013-04-09 23:10:00,
2013-04-09 16:12:00,56.9,24.9,29.76,West,270,13.2,16.3,29,0.00,,,0.06,WUHU216HW,2013-04-09 23:12:00,
2013-04-09 16:14:00,57.1,25.0,29.76,SW,225,7.8,17.0,29,0.00,,,0.06,WUHU216HW,2013-04-09 23:14:00,
2013-04-09 16:16:00,57.2,25.1,29.76,WSW,248,16.1,17.0,29,0.00,,,0.06,WUHU216HW,2013-04-09 23:16:00,
2013-04-09 16:17:00,57.2,25.1,29.76,WSW,248,14.3,17.0,29,0.00,,,0.06,WUHU216HW,2013-04-09 23:17:00,
2013-04-09 16:19:00,57.4,25.3,29.76,SW,225,8.9,17.0,29,0.00,,,0.06,WUHU216HW,2013-04-09 23:19:00,
2013-04-09 16:21:00,57.4,25.3,29.76,SSW,203,15.7,17.0,29,0.00,,,0.06,WUHU216HW,2013-04-09 23:21:00,
2013-04-09 16:22:00,57.6,26.5,29.76,WSW,248,13.9,17.0,30,0.00,,,0.06,WUHU216HW,2013-04-09 23:22:00,
2013-04-09 16:24:00,57.6,25.5,29.76,WSW,248,11.2,17.9,29,0.00,,,0.06,WUHU216HW,2013-04-09 23:24:00,
2013-04-09 16:27:00,58.0,25.8,29.76,WSW,248,14.3,17.9,29,0.00,,,0.06,WUHU216HW,2013-04-09 23:27:00,
2013-04-09 16:29:00,58.0,26.7,29.76,WSW,248,7.4,17.9,30,0.00,,,0.06,WUHU216HW,2013-04-09 23:29:00,
2013-04-09 16:32:00,58.5,27.3,29.76,WSW,248,20.1,20.1,30,0.00,,,0.06,WUHU216HW,2013-04-09 23:32:00,
2013-04-09 16:33:00,58.5,26.3,29.76,WSW,248,12.8,20.1,29,0.00,,,0.06,WUHU216HW,2013-04-09 23:33:00,
2013-04-09 16:34:00,58.5,27.3,29.76,SSW,203,9.6,20.1,30,0.00,,,0.06,WUHU216HW,2013-04-09 23:34:00,
2013-04-09 16:37:00,58.1,26.9,29.76,West,270,14.8,20.1,30,0.00,,,0.06,WUHU216HW,2013-04-09 23:37:00,
2013-04-09 16:38:00,58.0,26.7,29.76,WSW,248,14.3,20.1,30,0.00,,,0.06,WUHU216HW,2013-04-09 23:38:00,
2013-04-09 16:39:00,58.0,27.5,29.76,West,270,12.3,20.1,31,0.00,,,0.06,WUHU216HW,2013-04-09 23:39:00,
2013-04-09 16:42:00,58.0,27.5,29.76,WSW,248,12.1,20.1,31,0.00,,,0.06,WUHU216HW,2013-04-09 23:42:00,
2013-04-09 16:43:00,58.0,27.5,29.76,WSW,248,13.4,19.9,31,0.00,,,0.06,WUHU216HW,2013-04-09 23:43:00,
2013-04-09 16:44:00,57.8,27.3,29.76,WSW,248,15.4,19.9,31,0.00,,,0.06,WUHU216HW,2013-04-09 23:44:00,
2013-04-09 16:47:00,57.8,28.0,29.76,WSW,248,15.2,18.6,32,0.00,,,0.06,WUHU216HW,2013-04-09 23:47:00,
2013-04-09 16:48:00,57.8,28.0,29.76,West,270,16.6,18.6,32,0.00,,,0.06,WUHU216HW,2013-04-09 23:48:00,
2013-04-09 16:49:00,57.8,26.6,29.76,West,270,11.6,18.6,30,0.00,,,0.06,WUHU216HW,2013-04-09 23:49:00,
2013-04-09 16:50:00,57.8,27.3,29.76,WSW,248,14.3,18.6,31,0.00,,,0.06,WUHU216HW,2013-04-09 23:50:00,
2013-04-09 16:53:00,57.8,27.3,29.76,WSW,248,20.1,20.1,31,0.00,,,0.06,WUHU216HW,2013-04-09 23:53:00,
2013-04-09 16:54:00,58.0,26.7,29.76,WSW,248,18.1,20.1,30,0.00,,,0.06,WUHU216HW,2013-04-09 23:54:00,
2013-04-09 16:55:00,58.0,26.7,29.76,SW,225,18.6,20.1,30,0.00,,,0.06,WUHU216HW,2013-04-09 23:55:00,
2013-04-09 16:58:00,57.6,26.5,29.77,WSW,248,10.7,20.1,30,0.00,,,0.06,WUHU216HW,2013-04-09 23:58:00,
2013-04-09 16:59:00,57.8,27.3,29.77,WSW,248,15.0,20.1,31,0.00,,,0.06,WUHU216HW,2013-04-09 23:59:00,
2013-04-09 17:00:00,57.8,27.3,29.76,WSW,248,8.1,20.1,31,0.00,,,0.06,WUHU216HW,2013-04-10 00:00:00,
2013-04-09 17:03:00,58.3,27.8,29.76,West,270,9.4,18.6,31,0.00,,,0.06,WUHU216HW,2013-04-10 00:03:00,
2013-04-09 17:04:00,58.7,28.1,29.77,SW,225,8.1,18.6,31,0.00,,,0.06,WUHU216HW,2013-04-10 00:04:00,
2013-04-09 17:05:00,58.7,28.1,29.77,SW,225,13.9,17.2,31,0.00,,,0.06,WUHU216HW,2013-04-10 00:05:00,
2013-04-09 17:08:00,58.7,27.4,29.77,West,270,11.4,17.7,30,0.00,,,0.06,WUHU216HW,2013-04-10 00:08:00,
2013-04-09 17:10:00,58.7,28.1,29.77,WSW,248,9.4,17.7,31,0.00,,,0.06,WUHU216HW,2013-04-10 00:10:00,
2013-04-09 17:13:00,59.0,28.5,29.77,WSW,248,8.1,17.7,31,0.00,,,0.06,WUHU216HW,2013-04-10 00:13:00,
2013-04-09 17:15:00,59.2,28.5,29.77,WSW,248,12.1,17.7,31,0.00,,,0.06,WUHU216HW,2013-04-10 00:15:00,
2013-04-09 17:18:00,59.6,28.2,29.77,WSW,248,9.6,15.0,30,0.00,,,0.06,WUHU216HW,2013-04-10 00:18:00,
2013-04-09 17:20:00,59.8,28.3,29.77,WNW,293,13.4,15.0,30,0.00,,,0.06,WUHU216HW,2013-04-10 00:20:00,
2013-04-09 17:23:00,59.9,28.4,29.77,SW,225,14.1,18.6,30,0.00,,,0.06,WUHU216HW,2013-04-10 00:23:00,
2013-04-09 17:25:00,59.8,29.0,29.77,WSW,248,14.3,18.6,31,0.00,,,0.06,WUHU216HW,2013-04-10 00:25:00,
2013-04-09 17:28:00,59.8,28.3,29.77,WSW,248,13.9,18.6,30,0.00,,,0.06,WUHU216HW,2013-04-10 00:28:00,
2013-04-09 17:29:00,59.8,29.0,29.77,SW,225,12.8,18.6,31,0.00,,,0.06,WUHU216HW,2013-04-10 00:29:00,
2013-04-09 17:30:00,59.8,29.0,29.77,West,270,9.6,18.6,31,0.00,,,0.06,WUHU216HW,2013-04-10 00:30:00,
2013-04-09 17:31:00,59.8,28.3,29.77,SW,225,6.3,14.5,30,0.00,,,0.06,WUHU216HW,2013-04-10 00:31:00,
2013-04-09 17:34:00,60.1,28.6,29.77,WSW,248,13.2,14.5,30,0.00,,,0.06,WUHU216HW,2013-04-10 00:34:00,
2013-04-09 17:35:00,60.1,27.6,29.77,WSW,248,12.1,16.3,29,0.00,,,0.06,WUHU216HW,2013-04-10 00:35:00,
2013-04-09 17:36:00,60.1,27.6,29.77,WSW,248,11.0,16.3,29,0.00,,,0.06,WUHU216HW,2013-04-10 00:36:00,
2013-04-09 17:39:00,59.8,28.3,29.77,West,270,6.9,16.3,30,0.00,,,0.06,WUHU216HW,2013-04-10 00:39:00,
2013-04-09 17:40:00,59.9,29.2,29.77,WSW,248,8.7,16.3,31,0.00,,,0.06,WUHU216HW,2013-04-10 00:40:00,
2013-04-09 17:41:00,59.9,28.4,29.77,WSW,248,11.6,16.3,30,0.00,,,0.06,WUHU216HW,2013-04-10 00:41:00,
2013-04-09 17:44:00,60.1,28.6,29.77,WSW,248,8.3,16.3,30,0.00,,,0.06,WUHU216HW,2013-04-10 00:44:00,
2013-04-09 17:46:00,60.1,28.6,29.77,WSW,248,12.8,15.7,30,0.00,,,0.06,WUHU216HW,2013-04-10 00:46:00,
2013-04-09 17:47:00,60.1,28.6,29.77,WSW,248,9.6,14.5,30,0.00,,,0.06,WUHU216HW,2013-04-10 00:47:00,
2013-04-09 17:49:00,60.1,28.6,29.77,WSW,248,6.9,13.6,30,0.00,,,0.06,WUHU216HW,2013-04-10 00:49:00,
2013-04-09 17:51:00,60.1,27.6,29.77,SSW,203,6.3,15.0,29,0.00,,,0.06,WUHU216HW,2013-04-10 00:51:00,
2013-04-09 17:52:00,59.8,28.3,29.77,SW,225,6.3,15.0,30,0.00,,,0.06,WUHU216HW,2013-04-10 00:52:00,
2013-04-09 17:54:00,59.9,29.2,29.77,SW,225,9.2,15.0,31,0.00,,,0.06,WUHU216HW,2013-04-10 00:54:00,
2013-04-09 17:55:00,59.8,29.0,29.77,WSW,248,7.6,15.0,31,0.00,,,0.06,WUHU216HW,2013-04-10 00:55:00,
2013-04-09 17:56:00,59.8,29.0,29.77,WSW,248,16.3,16.3,31,0.00,,,0.06,WUHU216HW,2013-04-10 00:56:00,
2013-04-09 17:57:00,59.4,28.7,29.77,WSW,248,12.8,17.2,31,0.00,,,0.06,WUHU216HW,2013-04-10 00:57:00,
2013-04-09 17:59:00,59.0,29.2,29.78,WSW,248,7.8,17.2,32,0.00,,,0.06,WUHU216HW,2013-04-10 00:59:00,
2013-04-09 18:00:00,58.9,29.0,29.78,WSW,248,7.6,17.2,32,0.00,,,0.06,WUHU216HW,2013-04-10 01:00:00,
2013-04-09 18:01:00,58.9,29.0,29.78,WSW,248,7.4,17.2,32,0.00,,,0.06,WUHU216HW,2013-04-10 01:01:00,
2013-04-09 18:02:00,58.9,29.0,29.78,WSW,248,7.4,17.2,32,0.00,,,0.06,WUHU216HW,2013-04-10 01:02:00,
2013-04-09 18:04:00,58.7,29.5,29.78,SW,225,10.7,17.2,33,0.00,,,0.06,WUHU216HW,2013-04-10 01:04:00,
2013-04-09 18:05:00,58.7,29.5,29.78,WSW,248,9.2,17.2,33,0.00,,,0.06,WUHU216HW,2013-04-10 01:05:00,
2013-04-09 18:06:00,58.5,29.3,29.78,SW,225,10.5,17.2,33,0.00,,,0.06,WUHU216HW,2013-04-10 01:06:00,
2013-04-09 18:07:00,58.1,29.0,29.77,WSW,248,11.2,12.8,33,0.00,,,0.06,WUHU216HW,2013-04-10 01:07:00,
2013-04-09 18:09:00,57.8,28.7,29.77,WSW,248,9.8,12.8,33,0.00,,,0.06,WUHU216HW,2013-04-10 01:09:00,
2013-04-09 18:10:00,57.6,29.3,29.77,WSW,248,7.8,12.8,34,0.00,,,0.06,WUHU216HW,2013-04-10 01:10:00,
2013-04-09 18:11:00,57.2,28.9,29.77,WSW,248,8.3,12.8,34,0.00,,,0.06,WUHU216HW,2013-04-10 01:11:00,
2013-04-09 18:13:00,57.1,28.7,29.77,WSW,248,6.5,12.8,34,0.00,,,0.06,WUHU216HW,2013-04-10 01:13:00,
2013-04-09 18:14:00,56.7,28.5,29.77,WSW,248,7.8,12.8,34,0.00,,,0.06,WUHU216HW,2013-04-10 01:14:00,
2013-04-09 18:16:00,56.3,29.5,29.77,West,270,9.6,12.8,36,0.00,,,0.06,WUHU216HW,2013-04-10 01:16:00,
2013-04-09 18:17:00,56.2,29.3,29.77,WSW,248,12.3,14.1,36,0.00,,,0.06,WUHU216HW,2013-04-10 01:17:00,
2013-04-09 18:18:00,56.0,29.2,29.77,WSW,248,10.7,14.1,36,0.00,,,0.06,WUHU216HW,2013-04-10 01:18:00,
2013-04-09 18:19:00,55.4,28.7,29.77,WSW,248,11.2,14.1,36,0.00,,,0.06,WUHU216HW,2013-04-10 01:19:00,
2013-04-09 18:21:00,55.1,28.4,29.77,WSW,248,5.4,14.1,36,0.00,,,0.06,WUHU216HW,2013-04-10 01:21:00,
2013-04-09 18:22:00,55.1,29.1,29.77,West,270,11.2,14.1,37,0.00,,,0.06,WUHU216HW,2013-04-10 01:22:00,
2013-04-09 18:23:00,54.9,28.9,29.77,WSW,248,9.4,14.3,37,0.00,,,0.06,WUHU216HW,2013-04-10 01:23:00,
2013-04-09 18:24:00,54.5,28.6,29.77,WSW,248,7.2,14.3,37,0.00,,,0.06,WUHU216HW,2013-04-10 01:24:00,
2013-04-09 18:26:00,54.4,28.4,29.77,SW,225,7.2,14.3,37,0.00,,,0.06,WUHU216HW,2013-04-10 01:26:00,
2013-04-09 18:27:00,54.2,28.3,29.77,West,270,8.1,14.3,37,0.00,,,0.06,WUHU216HW,2013-04-10 01:27:00,
2013-04-09 18:29:00,53.8,28.7,29.77,WSW,248,11.6,14.3,38,0.00,,,0.06,WUHU216HW,2013-04-10 01:29:00,
2013-04-09 18:30:00,53.8,28.7,29.77,WSW,248,11.2,14.3,38,0.00,,,0.06,WUHU216HW,2013-04-10 01:30:00,
2013-04-09 18:32:00,53.6,28.5,29.77,WSW,248,10.3,14.3,38,0.00,,,0.06,WUHU216HW,2013-04-10 01:32:00,
2013-04-09 18:33:00,53.5,28.4,29.77,SW,225,8.9,11.9,38,0.00,,,0.06,WUHU216HW,2013-04-10 01:33:00,
2013-04-09 18:35:00,53.3,28.2,29.78,West,270,14.8,16.8,38,0.00,,,0.06,WUHU216HW,2013-04-10 01:35:00,
2013-04-09 18:37:00,52.9,27.9,29.78,WSW,248,7.8,17.2,38,0.00,,,0.06,WUHU216HW,2013-04-10 01:37:00,
2013-04-09 18:38:00,52.9,27.9,29.78,SW,225,11.6,17.2,38,0.00,,,0.06,WUHU216HW,2013-04-10 01:38:00,
2013-04-09 18:40:00,52.9,28.5,29.78,WSW,248,9.6,17.2,39,0.00,,,0.06,WUHU216HW,2013-04-10 01:40:00,
2013-04-09 18:43:00,52.6,28.9,29.78,SW,225,7.4,17.2,40,0.00,,,0.06,WUHU216HW,2013-04-10 01:43:00,
2013-04-09 18:45:00,52.4,28.7,29.78,SW,225,15.7,17.2,40,0.00,,,0.06,WUHU216HW,2013-04-10 01:45:00,
2013-04-09 18:48:00,52.4,28.7,29.78,WSW,248,10.3,15.7,40,0.00,,,0.06,WUHU216HW,2013-04-10 01:48:00,
2013-04-09 18:50:00,52.2,28.6,29.78,WSW,248,10.1,15.7,40,0.00,,,0.06,WUHU216HW,2013-04-10 01:50:00,
2013-04-09 18:53:00,52.0,28.5,29.78,WSW,248,8.3,15.7,40,0.00,,,0.06,WUHU216HW,2013-04-10 01:53:00,
2013-04-09 18:55:00,52.0,28.5,29.78,WSW,248,6.5,13.9,40,0.00,,,0.06,WUHU216HW,2013-04-10 01:55:00,
2013-04-09 18:56:00,52.0,28.5,29.78,WSW,248,5.4,13.0,40,0.00,,,0.06,WUHU216HW,2013-04-10 01:56:00,
2013-04-09 18:58:00,51.8,28.8,29.78,SW,225,4.7,13.0,41,0.00,,,0.06,WUHU216HW,2013-04-10 01:58:00,
2013-04-09 19:00:00,51.8,28.3,29.78,WSW,248,8.5,13.0,40,0.00,,,0.06,WUHU216HW,2013-04-10 02:00:00,
2013-04-09 19:01:00,51.7,28.1,29.78,WSW,248,6.3,13.0,40,0.00,,,0.06,WUHU216HW,2013-04-10 02:01:00,
2013-04-09 19:03:00,51.5,27.9,29.78,WSW,248,10.7,13.4,40,0.00,,,0.06,WUHU216HW,2013-04-10 02:03:00,
2013-04-09 19:04:00,51.7,28.1,29.78,WSW,248,11.2,13.4,40,0.00,,,0.06,WUHU216HW,2013-04-10 02:04:00,
2013-04-09 19:05:00,51.5,27.9,29.79,West,270,4.7,13.4,40,0.00,,,0.06,WUHU216HW,2013-04-10 02:05:00,
2013-04-09 19:07:00,51.5,27.9,29.79,WSW,248,6.5,13.4,40,0.00,,,0.06,WUHU216HW,2013-04-10 02:07:00,
2013-04-09 19:09:00,51.5,27.9,29.79,West,270,3.4,13.4,40,0.00,,,0.06,WUHU216HW,2013-04-10 02:09:00,
2013-04-09 19:10:00,51.3,28.4,29.79,West,270,6.3,13.4,41,0.00,,,0.06,WUHU216HW,2013-04-10 02:10:00,
2013-04-09 19:12:00,51.3,28.4,29.79,West,270,4.9,13.4,41,0.00,,,0.06,WUHU216HW,2013-04-10 02:12:00,
2013-04-09 19:14:00,51.1,28.2,29.79,West,270,3.4,11.2,41,0.00,,,0.06,WUHU216HW,2013-04-10 02:14:00,
2013-04-09 19:16:00,51.1,28.2,29.79,WSW,248,5.8,8.5,41,0.00,,,0.06,WUHU216HW,2013-04-10 02:16:00,
2013-04-09 19:17:00,51.1,28.2,29.79,West,270,2.5,8.5,41,0.00,,,0.06,WUHU216HW,2013-04-10 02:17:00,
2013-04-09 19:19:00,50.9,28.0,29.79,WNW,293,3.6,8.3,41,0.00,,,0.06,WUHU216HW,2013-04-10 02:19:00,
2013-04-09 19:22:00,50.9,28.0,29.79,West,270,3.4,8.3,41,0.00,,,0.06,WUHU216HW,2013-04-10 02:22:00,
2013-04-09 19:24:00,50.8,28.5,29.79,NW,315,2.9,8.3,42,0.00,,,0.06,WUHU216HW,2013-04-10 02:24:00,
2013-04-09 19:27:00,50.6,28.8,29.80,West,270,4.7,6.0,43,0.00,,,0.06,WUHU216HW,2013-04-10 02:27:00,
2013-04-09 19:29:00,50.4,28.1,29.80,NNW,338,2.7,6.0,42,0.00,,,0.06,WUHU216HW,2013-04-10 02:29:00,
2013-04-09 19:32:00,50.4,28.6,29.80,WNW,293,3.1,6.0,43,0.00,,,0.06,WUHU216HW,2013-04-10 02:32:00,
2013-04-09 19:34:00,50.2,28.4,29.80,WNW,293,2.7,6.0,43,0.00,,,0.06,WUHU216HW,2013-04-10 02:34:00,
2013-04-09 19:35:00,50.2,28.4,29.80,NW,315,2.5,6.0,43,0.00,,,0.06,WUHU216HW,2013-04-10 02:35:00,
2013-04-09 19:37:00,50.2,28.4,29.80,West,270,10.3,10.3,43,0.00,,,0.06,WUHU216HW,2013-04-10 02:37:00,
2013-04-09 19:39:00,50.0,28.4,29.80,NW,315,4.0,10.3,43,0.00,,,0.06,WUHU216HW,2013-04-10 02:39:00,
2013-04-09 19:40:00,50.0,28.4,29.80,NW,315,7.8,10.3,43,0.00,,,0.06,WUHU216HW,2013-04-10 02:40:00,
2013-04-09 19:42:00,50.0,28.4,29.80,WNW,293,5.4,10.3,43,0.00,,,0.06,WUHU216HW,2013-04-10 02:42:00,
2013-04-09 19:44:00,49.9,28.7,29.80,West,270,7.8,10.3,44,0.00,,,0.06,WUHU216HW,2013-04-10 02:44:00,
2013-04-09 19:45:00,49.9,28.7,29.80,West,270,5.6,10.3,44,0.00,,,0.06,WUHU216HW,2013-04-10 02:45:00,
2013-04-09 19:47:00,49.9,28.7,29.81,WSW,248,8.5,9.4,44,0.00,,,0.06,WUHU216HW,2013-04-10 02:47:00,
2013-04-09 19:48:00,49.9,28.7,29.81,West,270,8.1,8.9,44,0.00,,,0.06,WUHU216HW,2013-04-10 02:48:00,
2013-04-09 19:50:00,49.7,28.5,29.81,West,270,11.4,11.4,44,0.00,,,0.06,WUHU216HW,2013-04-10 02:50:00,
2013-04-09 19:52:00,49.9,28.7,29.81,West,270,7.6,11.4,44,0.00,,,0.06,WUHU216HW,2013-04-10 02:52:00,
2013-04-09 19:53:00,49.9,28.7,29.81,West,270,7.2,11.4,44,0.00,,,0.06,WUHU216HW,2013-04-10 02:53:00,
2013-04-09 19:55:00,49.9,28.7,29.81,WSW,248,12.1,12.1,44,0.00,,,0.06,WUHU216HW,2013-04-10 02:55:00,
2013-04-09 19:57:00,49.7,28.0,29.81,WSW,248,6.3,12.8,43,0.00,,,0.06,WUHU216HW,2013-04-10 02:57:00,
2013-04-09 19:58:00,49.7,28.0,29.81,WSW,248,6.3,12.8,43,0.00,,,0.06,WUHU216HW,2013-04-10 02:58:00,
2013-04-09 20:00:00,49.7,28.5,29.81,WSW,248,8.5,12.8,44,0.00,,,0.06,WUHU216HW,2013-04-10 03:00:00,
2013-04-09 20:01:00,49.7,28.5,29.81,West,270,7.4,12.8,44,0.00,,,0.06,WUHU216HW,2013-04-10 03:01:00,
2013-04-09 20:03:00,49.7,28.5,29.81,WSW,248,12.3,12.8,44,0.00,,,0.06,WUHU216HW,2013-04-10 03:03:00,
2013-04-09 20:05:00,49.5,28.9,29.81,SW,225,7.6,12.8,45,0.00,,,0.06,WUHU216HW,2013-04-10 03:05:00,
2013-04-09 20:06:00,49.5,28.9,29.81,WSW,248,7.2,12.3,45,0.00,,,0.06,WUHU216HW,2013-04-10 03:06:00,
2013-04-09 20:08:00,49.5,28.9,29.81,WSW,248,6.5,12.3,45,0.00,,,0.06,WUHU216HW,2013-04-10 03:08:00,
2013-04-09 20:10:00,49.3,28.7,29.81,West,270,8.1,12.3,45,0.00,,,0.06,WUHU216HW,2013-04-10 03:10:00,
2013-04-09 20:11:00,49.3,28.7,29.81,West,270,4.7,12.3,45,0.00,,,0.06,WUHU216HW,2013-04-10 03:11:00,
2013-04-09 20:13:00,49.3,28.7,29.81,West,270,8.1,11.6,45,0.00,,,0.06,WUHU216HW,2013-04-10 03:13:00,
2013-04-09 20:15:00,49.3,28.7,29.82,WSW,248,8.3,9.2,45,0.00,,,0.06,WUHU216HW,2013-04-10 03:15:00,
2013-04-09 20:17:00,49.1,28.6,29.81,West,270,8.5,9.2,45,0.00,,,0.06,WUHU216HW,2013-04-10 03:17:00,
2013-04-09 20:18:00,49.1,28.6,29.82,WSW,248,7.8,9.2,45,0.00,,,0.06,WUHU216HW,2013-04-10 03:18:00,
2013-04-09 20:19:00,49.0,28.5,29.82,WSW,248,5.4,9.2,45,0.00,,,0.06,WUHU216HW,2013-04-10 03:19:00,
2013-04-09 20:20:00,49.0,28.5,29.82,WSW,248,6.5,8.9,45,0.00,,,0.06,WUHU216HW,2013-04-10 03:20:00,
2013-04-09 20:22:00,49.0,28.5,29.82,WSW,248,5.4,8.9,45,0.00,,,0.06,WUHU216HW,2013-04-10 03:22:00,
2013-04-09 20:23:00,49.0,28.5,29.82,WSW,248,6.5,8.9,45,0.00,,,0.06,WUHU216HW,2013-04-10 03:23:00,
2013-04-09 20:24:00,49.0,28.5,29.82,West,270,7.4,8.9,45,0.00,,,0.06,WUHU216HW,2013-04-10 03:24:00,
2013-04-09 20:25:00,49.0,28.5,29.82,West,270,6.5,8.9,45,0.00,,,0.06,WUHU216HW,2013-04-10 03:25:00,
2013-04-09 20:27:00,49.0,28.5,29.82,WSW,248,5.1,8.5,45,0.00,,,0.06,WUHU216HW,2013-04-10 03:27:00,
2013-04-09 20:28:00,49.0,28.5,29.82,WSW,248,5.4,8.1,45,0.00,,,0.06,WUHU216HW,2013-04-10 03:28:00,
2013-04-09 20:29:00,49.0,28.5,29.82,West,270,5.4,8.1,45,0.00,,,0.06,WUHU216HW,2013-04-10 03:29:00,
2013-04-09 20:30:00,49.0,28.5,29.82,WSW,248,4.9,8.1,45,0.00,,,0.06,WUHU216HW,2013-04-10 03:30:00,
2013-04-09 20:32:00,48.8,28.3,29.82,WSW,248,4.7,7.4,45,0.00,,,0.06,WUHU216HW,2013-04-10 03:32:00,
2013-04-09 20:33:00,48.8,28.8,29.82,WSW,248,5.8,7.8,46,0.00,,,0.06,WUHU216HW,2013-04-10 03:33:00,
2013-04-09 20:34:00,48.8,28.8,29.82,WSW,248,5.8,7.8,46,0.00,,,0.06,WUHU216HW,2013-04-10 03:34:00,
2013-04-09 20:35:00,48.6,28.6,29.82,WSW,248,4.9,7.8,46,0.00,,,0.06,WUHU216HW,2013-04-10 03:35:00,
2013-04-09 20:37:00,48.6,28.6,29.83,WSW,248,6.3,7.8,46,0.00,,,0.06,WUHU216HW,2013-04-10 03:37:00,
2013-04-09 20:38:00,48.6,28.6,29.83,WSW,248,5.6,7.8,46,0.00,,,0.06,WUHU216HW,2013-04-10 03:38:00,
2013-04-09 20:39:00,48.6,28.6,29.83,WSW,248,7.2,7.8,46,0.00,,,0.06,WUHU216HW,2013-04-10 03:39:00,
2013-04-09 20:41:00,48.6,28.6,29.83,WSW,248,3.8,7.8,46,0.00,,,0.06,WUHU216HW,2013-04-10 03:41:00,
2013-04-09 20:42:00,48.6,28.1,29.83,WSW,248,4.0,7.8,45,0.00,,,0.06,WUHU216HW,2013-04-10 03:42:00,
2013-04-09 20:43:00,48.4,27.9,29.83,WSW,248,4.7,7.2,45,0.00,,,0.06,WUHU216HW,2013-04-10 03:43:00,
2013-04-09 20:44:00,48.4,28.5,29.83,WSW,248,4.0,7.2,46,0.00,,,0.06,WUHU216HW,2013-04-10 03:44:00,
2013-04-09 20:46:00,48.4,28.5,29.83,West,270,6.9,7.2,46,0.00,,,0.06,WUHU216HW,2013-04-10 03:46:00,
2013-04-09 20:47:00,48.4,28.5,29.83,WSW,248,6.7,7.2,46,0.00,,,0.06,WUHU216HW,2013-04-10 03:47:00,
2013-04-09 20:48:00,48.4,28.5,29.83,WSW,248,6.3,7.2,46,0.00,,,0.06,WUHU216HW,2013-04-10 03:48:00,
2013-04-09 20:49:00,48.4,28.5,29.83,WSW,248,6.3,7.2,46,0.00,,,0.06,WUHU216HW,2013-04-10 03:49:00,
2013-04-09 20:52:00,48.2,28.3,29.83,WSW,248,7.6,7.6,46,0.00,,,0.06,WUHU216HW,2013-04-10 03:52:00,
2013-04-09 20:54:00,48.2,28.3,29.84,WSW,248,5.1,8.9,46,0.00,,,0.06,WUHU216HW,2013-04-10 03:54:00,
2013-04-09 20:57:00,48.2,28.3,29.84,WSW,248,7.6,8.9,46,0.00,,,0.06,WUHU216HW,2013-04-10 03:57:00,
2013-04-09 20:59:00,48.2,28.3,29.84,West,270,6.3,8.9,46,0.00,,,0.06,WUHU216HW,2013-04-10 03:59:00,
2013-04-09 21:00:00,48.2,28.3,29.84,West,270,6.3,8.9,46,0.00,,,0.06,WUHU216HW,2013-04-10 04:00:00,
2013-04-09 21:05:00,48.2,28.3,29.84,WSW,248,4.0,8.7,46,0.00,,,0.06,WUHU216HW,2013-04-10 04:05:00,
2013-04-09 21:10:00,48.1,28.1,29.84,West,270,5.1,6.5,46,0.00,,,0.06,WUHU216HW,2013-04-10 04:10:00,
2013-04-09 21:15:00,47.9,27.9,29.84,WSW,248,3.4,6.5,46,0.00,,,0.06,WUHU216HW,2013-04-10 04:15:00,
2013-04-09 21:16:00,47.9,27.9,29.84,West,270,4.7,6.5,46,0.00,,,0.06,WUHU216HW,2013-04-10 04:16:00,
2013-04-09 21:20:00,47.7,28.4,29.84,WSW,248,6.5,6.9,47,0.00,,,0.06,WUHU216HW,2013-04-10 04:20:00,
2013-04-09 21:21:00,47.7,28.4,29.84,WSW,248,5.6,6.9,47,0.00,,,0.06,WUHU216HW,2013-04-10 04:21:00,
2013-04-09 21:25:00,47.7,28.4,29.84,WSW,248,6.0,6.9,47,0.00,,,0.06,WUHU216HW,2013-04-10 04:25:00,
2013-04-09 21:26:00,47.7,28.4,29.84,WSW,248,5.1,6.9,47,0.00,,,0.06,WUHU216HW,2013-04-10 04:26:00,
2013-04-09 21:27:00,47.7,28.4,29.84,WSW,248,4.7,6.9,47,0.00,,,0.06,WUHU216HW,2013-04-10 04:27:00,
2013-04-09 21:31:00,47.5,27.6,29.84,WNW,293,2.7,6.3,46,0.00,,,0.06,WUHU216HW,2013-04-10 04:31:00,
2013-04-09 21:32:00,47.5,27.6,29.84,West,270,2.9,6.3,46,0.00,,,0.06,WUHU216HW,2013-04-10 04:32:00,
2013-04-09 21:36:00,47.3,28.0,29.84,WSW,248,3.8,5.8,47,0.00,,,0.06,WUHU216HW,2013-04-10 04:36:00,
2013-04-09 21:37:00,47.3,28.0,29.84,WSW,248,5.6,5.8,47,0.00,,,0.06,WUHU216HW,2013-04-10 04:37:00,
2013-04-09 21:38:00,47.3,28.0,29.84,South,180,8.5,9.2,47,0.00,,,0.06,WUHU216HW,2013-04-10 04:38:00,
2013-04-09 21:41:00,47.3,28.0,29.84,West,270,4.9,9.2,47,0.00,,,0.06,WUHU216HW,2013-04-10 04:41:00,
2013-04-09 21:42:00,47.3,28.0,29.84,WSW,248,4.3,9.2,47,0.00,,,0.06,WUHU216HW,2013-04-10 04:42:00,
2013-04-09 21:43:00,47.3,28.0,29.85,WSW,248,4.0,9.2,47,0.00,,,0.06,WUHU216HW,2013-04-10 04:43:00,
2013-04-09 21:47:00,47.3,28.0,29.84,WSW,248,4.7,9.2,47,0.00,,,0.06,WUHU216HW,2013-04-10 04:47:00,
2013-04-09 21:48:00,47.3,27.5,29.84,WSW,248,5.4,8.1,46,0.00,,,0.06,WUHU216HW,2013-04-10 04:48:00,
2013-04-09 21:52:00,47.2,27.3,29.85,West,270,4.7,8.7,46,0.00,,,0.06,WUHU216HW,2013-04-10 04:52:00,
2013-04-09 21:53:00,47.2,27.3,29.85,West,270,6.0,8.7,46,0.00,,,0.06,WUHU216HW,2013-04-10 04:53:00,
2013-04-09 21:57:00,47.2,27.8,29.85,West,270,8.1,9.8,47,0.00,,,0.06,WUHU216HW,2013-04-10 04:57:00,
2013-04-09 21:58:00,47.2,27.8,29.85,WSW,248,7.8,9.8,47,0.00,,,0.06,WUHU216HW,2013-04-10 04:58:00,
2013-04-09 22:02:00,47.2,27.8,29.85,WSW,248,6.5,10.5,47,0.00,,,0.06,WUHU216HW,2013-04-10 05:02:00,
2013-04-09 22:04:00,47.2,27.8,29.85,West,270,7.6,10.5,47,0.00,,,0.06,WUHU216HW,2013-04-10 05:04:00,
2013-04-09 22:07:00,47.2,27.3,29.85,WSW,248,6.7,10.5,46,0.00,,,0.06,WUHU216HW,2013-04-10 05:07:00,
2013-04-09 22:08:00,47.2,27.3,29.85,WSW,248,6.7,10.5,46,0.00,,,0.06,WUHU216HW,2013-04-10 05:08:00,
2013-04-09 22:09:00,47.2,27.3,29.85,WSW,248,6.9,10.5,46,0.00,,,0.06,WUHU216HW,2013-04-10 05:09:00,
2013-04-09 22:13:00,47.2,27.3,29.85,WSW,248,5.6,8.7,46,0.00,,,0.06,WUHU216HW,2013-04-10 05:13:00,
2013-04-09 22:14:00,47.2,27.3,29.85,West,270,6.9,8.7,46,0.00,,,0.06,WUHU216HW,2013-04-10 05:14:00,
2013-04-09 22:18:00,47.2,27.3,29.85,WSW,248,6.3,7.6,46,0.00,,,0.06,WUHU216HW,2013-04-10 05:18:00,
2013-04-09 22:19:00,47.2,27.3,29.85,West,270,5.6,7.6,46,0.00,,,0.06,WUHU216HW,2013-04-10 05:19:00,
2013-04-09 22:23:00,47.2,27.3,29.85,West,270,6.7,7.6,46,0.00,,,0.06,WUHU216HW,2013-04-10 05:23:00,
2013-04-09 22:24:00,47.2,27.3,29.85,West,270,5.4,7.6,46,0.00,,,0.06,WUHU216HW,2013-04-10 05:24:00,
2013-04-09 22:28:00,47.2,27.3,29.85,West,270,5.6,7.6,46,0.00,,,0.06,WUHU216HW,2013-04-10 05:28:00,
2013-04-09 22:29:00,47.0,27.1,29.85,WSW,248,6.3,7.6,46,0.00,,,0.06,WUHU216HW,2013-04-10 05:29:00,
2013-04-09 22:33:00,46.8,27.0,29.85,West,270,4.0,7.6,46,0.00,,,0.06,WUHU216HW,2013-04-10 05:33:00,
2013-04-09 22:34:00,46.8,27.0,29.85,WSW,248,3.6,7.6,46,0.00,,,0.06,WUHU216HW,2013-04-10 05:34:00,
2013-04-09 22:38:00,46.6,26.8,29.86,WSW,248,5.1,6.3,46,0.00,,,0.06,WUHU216HW,2013-04-10 05:38:00,
2013-04-09 22:39:00,46.6,26.8,29.86,West,270,3.6,6.3,46,0.00,,,0.06,WUHU216HW,2013-04-10 05:39:00,
2013-04-09 22:43:00,46.4,26.1,29.86,WSW,248,3.4,6.3,45,0.00,,,0.06,WUHU216HW,2013-04-10 05:43:00,
2013-04-09 22:44:00,46.4,26.1,29.86,WSW,248,4.9,6.3,45,0.00,,,0.06,WUHU216HW,2013-04-10 05:44:00,
2013-04-09 22:45:00,46.6,26.3,29.86,WSW,248,6.5,6.5,45,0.00,,,0.06,WUHU216HW,2013-04-10 05:45:00,
2013-04-09 22:48:00,46.4,26.1,29.86,West,270,4.7,6.5,45,0.00,,,0.06,WUHU216HW,2013-04-10 05:48:00,
2013-04-09 22:49:00,46.4,26.1,29.86,WSW,248,6.3,6.9,45,0.00,,,0.06,WUHU216HW,2013-04-10 05:49:00,
2013-04-09 22:50:00,46.6,26.3,29.86,West,270,4.3,6.9,45,0.00,,,0.06,WUHU216HW,2013-04-10 05:50:00,
2013-04-09 22:54:00,46.6,26.3,29.86,WSW,248,2.7,6.9,45,0.00,,,0.06,WUHU216HW,2013-04-10 05:54:00,
2013-04-09 22:55:00,46.6,26.3,29.86,West,270,4.3,6.9,45,0.00,,,0.06,WUHU216HW,2013-04-10 05:55:00,
2013-04-09 22:59:00,46.6,26.3,29.86,West,270,4.7,6.9,45,0.00,,,0.06,WUHU216HW,2013-04-10 05:59:00,
2013-04-09 23:00:00,46.4,26.1,29.86,WSW,248,4.3,5.4,45,0.00,,,0.06,WUHU216HW,2013-04-10 06:00:00,
2013-04-09 23:04:00,46.4,26.1,29.86,WSW,248,3.8,6.3,45,0.00,,,0.06,WUHU216HW,2013-04-10 06:04:00,
2013-04-09 23:05:00,46.4,26.1,29.86,WSW,248,5.6,6.3,45,0.00,,,0.06,WUHU216HW,2013-04-10 06:05:00,
2013-04-09 23:09:00,46.4,25.6,29.86,WSW,248,6.9,7.2,44,0.00,,,0.06,WUHU216HW,2013-04-10 06:09:00,
2013-04-09 23:10:00,46.4,25.6,29.86,WSW,248,4.7,7.2,44,0.00,,,0.06,WUHU216HW,2013-04-10 06:10:00,
2013-04-09 23:14:00,46.4,25.0,29.86,West,270,4.7,7.2,43,0.00,,,0.06,WUHU216HW,2013-04-10 06:14:00,
2013-04-09 23:15:00,46.4,25.0,29.86,WSW,248,6.9,7.2,43,0.00,,,0.06,WUHU216HW,2013-04-10 06:15:00,
2013-04-09 23:19:00,46.4,25.0,29.86,SW,225,5.6,7.4,43,0.00,,,0.06,WUHU216HW,2013-04-10 06:19:00,
2013-04-09 23:20:00,46.4,25.0,29.86,SW,225,5.8,7.4,43,0.00,,,0.06,WUHU216HW,2013-04-10 06:20:00,
2013-04-09 23:24:00,46.6,24.7,29.86,WSW,248,8.9,9.8,42,0.00,,,0.06,WUHU216HW,2013-04-10 06:24:00,
2013-04-09 23:25:00,46.6,24.7,29.86,WSW,248,8.9,9.8,42,0.00,,,0.06,WUHU216HW,2013-04-10 06:25:00,
2013-04-09 23:29:00,46.6,24.7,29.86,SW,225,9.2,9.8,42,0.00,,,0.06,WUHU216HW,2013-04-10 06:29:00,
2013-04-09 23:30:00,46.6,24.7,29.86,WSW,248,8.1,9.8,42,0.00,,,0.06,WUHU216HW,2013-04-10 06:30:00,
2013-04-09 23:34:00,46.6,24.7,29.86,WSW,248,7.6,9.8,42,0.00,,,0.06,WUHU216HW,2013-04-10 06:34:00,
2013-04-09 23:35:00,46.6,24.7,29.86,WSW,248,7.4,9.8,42,0.00,,,0.06,WUHU216HW,2013-04-10 06:35:00,
2013-04-09 23:39:00,46.6,24.7,29.86,WSW,248,9.4,11.9,42,0.00,,,0.06,WUHU216HW,2013-04-10 06:39:00,
2013-04-09 23:40:00,46.6,24.1,29.86,WSW,248,8.1,11.9,41,0.00,,,0.06,WUHU216HW,2013-04-10 06:40:00,
2013-04-09 23:44:00,46.6,24.1,29.85,WSW,248,8.1,11.9,41,0.00,,,0.06,WUHU216HW,2013-04-10 06:44:00,
2013-04-09 23:45:00,46.8,24.3,29.86,WSW,248,6.7,11.9,41,0.00,,,0.06,WUHU216HW,2013-04-10 06:45:00,
2013-04-09 23:46:00,46.8,24.3,29.86,WSW,248,5.1,11.9,41,0.00,,,0.06,WUHU216HW,2013-04-10 06:46:00,
2013-04-09 23:50:00,46.8,23.8,29.86,WSW,248,7.6,9.8,40,0.00,,,0.06,WUHU216HW,2013-04-10 06:50:00,
2013-04-09 23:51:00,46.6,23.6,29.86,West,270,5.4,8.9,40,0.00,,,0.06,WUHU216HW,2013-04-10 06:51:00,
2013-04-09 23:55:00,46.6,23.6,29.86,West,270,6.7,8.1,40,0.00,,,0.06,WUHU216HW,2013-04-10 06:55:00,
2013-04-09 23:56:00,46.6,22.9,29.86,WSW,248,10.1,10.1,39,0.00,,,0.06,WUHU216HW,2013-04-10 06:56:00,
2013-04-09 23:57:00,46.8,23.0,29.86,WSW,248,8.1,10.5,39,0.00,,,0.06,WUHU216HW,2013-04-10 06:57:00,